UAE138 LEBL-MMMX

Flight info

Callsign UAE138
Flight time 11h 26m
Altitude 31000
Route SENIA DCT DORMI DCT CRETA/N0484F330 DCT NEXAS DCT DISVU DCT ADUXO DCT CJN N733 ZMR L155 ADORO/N0484F320 DCT EPOPO DCT ARMED/M083F320 DCT 43N020W/M083F340 43N030W 42N040W 40N050W 36N060W/M083F360 DCT BALOO DCT BALTN M329 GRATX/N0485F360 Y642 DROWN/N0482F380 Y642 LULLS Y196 CANOA UM346 AXOMU UT31 NUBEL UM580 RIBET UT101 ENAGA ENAGA3A
Aircraft B77W/H-SDE1E2E3FGHIJ2J3J4J5M1RWXY/LB1D1

Departure

Time 2026-05-07 06:44
Airport Josep Tarradellas Barcelona-El Prat Airport (LEBL)

Arrival

Time 2026-05-07 18:11
Airport Mexico City Benito Juárez International Airport (MMMX)
Time Latitude Longitude Altitude Speed Heading
2026-05-07 05:33 41.28747 2.07790 21 ft 0 kts 301°
2026-05-07 06:02 41.28742 2.07801 24 ft 3 kts 309°
2026-05-07 06:02 41.28732 2.07815 23 ft 3 kts 338°
2026-05-07 06:03 41.28726 2.07819 22 ft 3 kts 16°
2026-05-07 06:03 41.28718 2.07815 25 ft 3 kts 52°
2026-05-07 06:03 41.28708 2.07794 23 ft 2 kts 64°
2026-05-07 06:03 41.28705 2.07785 23 ft 1 kts 66°
2026-05-07 06:06 41.28708 2.07797 20 ft 3 kts 72°
2026-05-07 06:06 41.28706 2.07842 23 ft 6 kts 103°
2026-05-07 06:07 41.28713 2.07889 26 ft 5 kts 54°
2026-05-07 06:07 41.28745 2.07901 24 ft 4 kts 355°
2026-05-07 06:07 41.28775 2.07894 25 ft 6 kts 351°
2026-05-07 06:07 41.28822 2.07871 24 ft 9 kts 336°
2026-05-07 06:08 41.28833 2.07864 23 ft 0 kts 338°
2026-05-07 06:08 41.28866 2.07864 25 ft 13 kts
2026-05-07 06:08 41.28911 2.07953 24 ft 11 kts 63°
2026-05-07 06:09 41.28927 2.07995 22 ft 5 kts 65°
2026-05-07 06:09 41.28945 2.08047 25 ft 7 kts 65°
2026-05-07 06:09 41.28965 2.08106 26 ft 7 kts 65°
2026-05-07 06:09 41.28984 2.08162 25 ft 4 kts 66°
2026-05-07 06:10 41.28991 2.08183 27 ft 2 kts 68°
2026-05-07 06:10 41.28997 2.08204 25 ft 2 kts 68°
2026-05-07 06:10 41.29004 2.08227 26 ft 3 kts 66°
2026-05-07 06:10 41.29013 2.08251 24 ft 3 kts 64°
2026-05-07 06:11 41.29021 2.08275 23 ft 3 kts 65°
2026-05-07 06:11 41.29030 2.08299 24 ft 3 kts 65°
2026-05-07 06:11 41.29039 2.08324 24 ft 3 kts 65°
2026-05-07 06:11 41.29048 2.08348 5 ft 3 kts 59°
2026-05-07 06:12 41.29062 2.08368 38 ft 3 kts 42°
2026-05-07 06:12 41.29079 2.08383 25 ft 3 kts 31°
2026-05-07 06:12 41.29100 2.08400 24 ft 4 kts 32°
2026-05-07 06:12 41.29137 2.08419 22 ft 8 kts 18°
2026-05-07 06:13 41.29187 2.08442 19 ft 8 kts 21°
2026-05-07 06:13 41.29239 2.08452 18 ft 8 kts 350°
2026-05-07 06:13 41.29290 2.08426 18 ft 8 kts 334°
2026-05-07 06:13 41.29339 2.08393 18 ft 7 kts 334°
2026-05-07 06:14 41.29386 2.08364 19 ft 7 kts 337°
2026-05-07 06:14 41.29434 2.08339 20 ft 7 kts 337°
2026-05-07 06:14 41.29481 2.08313 22 ft 7 kts 337°
2026-05-07 06:14 41.29528 2.08284 21 ft 7 kts 335°
2026-05-07 06:15 41.29574 2.08256 23 ft 7 kts 335°
2026-05-07 06:15 41.29608 2.08234 22 ft 5 kts 332°
2026-05-07 06:15 41.29627 2.08197 22 ft 5 kts 283°
2026-05-07 06:15 41.29621 2.08151 26 ft 5 kts 254°
2026-05-07 06:16 41.29609 2.08107 26 ft 5 kts 247°
2026-05-07 06:16 41.29595 2.08064 25 ft 5 kts 246°
2026-05-07 06:16 41.29581 2.08021 25 ft 5 kts 246°
2026-05-07 06:16 41.29567 2.07979 26 ft 5 kts 246°
2026-05-07 06:17 41.29553 2.07936 25 ft 5 kts 246°
2026-05-07 06:17 41.29539 2.07893 29 ft 5 kts 245°
2026-05-07 06:17 41.29524 2.07851 28 ft 5 kts 245°
2026-05-07 06:17 41.29509 2.07809 29 ft 5 kts 244°
2026-05-07 06:18 41.29494 2.07766 29 ft 5 kts 244°
2026-05-07 06:18 41.29479 2.07724 26 ft 5 kts 244°
2026-05-07 06:18 41.29464 2.07682 30 ft 5 kts 245°
2026-05-07 06:18 41.29449 2.07640 29 ft 5 kts 246°
2026-05-07 06:19 41.29435 2.07597 31 ft 5 kts 246°
2026-05-07 06:19 41.29420 2.07554 25 ft 5 kts 246°
2026-05-07 06:19 41.29406 2.07511 26 ft 5 kts 246°
2026-05-07 06:19 41.29391 2.07469 31 ft 5 kts 245°
2026-05-07 06:20 41.29377 2.07426 31 ft 5 kts 245°
2026-05-07 06:20 41.29362 2.07384 29 ft 5 kts 244°
2026-05-07 06:20 41.29347 2.07341 29 ft 5 kts 245°
2026-05-07 06:20 41.29333 2.07299 27 ft 5 kts 245°
2026-05-07 06:21 41.29318 2.07256 27 ft 5 kts 245°
2026-05-07 06:21 41.29303 2.07213 30 ft 5 kts 245°
2026-05-07 06:21 41.29289 2.07170 28 ft 5 kts 245°
2026-05-07 06:21 41.29274 2.07127 27 ft 5 kts 245°
2026-05-07 06:22 41.29258 2.07080 25 ft 6 kts 245°
2026-05-07 06:22 41.29220 2.06967 20 ft 7 kts 245°
2026-05-07 06:22 41.29199 2.06909 22 ft 7 kts 244°
2026-05-07 06:23 41.29185 2.06868 21 ft 5 kts 244°
2026-05-07 06:23 41.29171 2.06829 21 ft 5 kts 244°
2026-05-07 06:23 41.29158 2.06789 21 ft 5 kts 247°
2026-05-07 06:23 41.29145 2.06749 19 ft 5 kts 247°
2026-05-07 06:24 41.29132 2.06710 18 ft 5 kts 246°
2026-05-07 06:24 41.29119 2.06670 18 ft 5 kts 246°
2026-05-07 06:24 41.29105 2.06631 18 ft 5 kts 245°
2026-05-07 06:24 41.29092 2.06591 19 ft 5 kts 245°
2026-05-07 06:25 41.29080 2.06551 20 ft 5 kts 257°
2026-05-07 06:25 41.29083 2.06508 21 ft 5 kts 280°
2026-05-07 06:25 41.29091 2.06467 24 ft 5 kts 288°
2026-05-07 06:25 41.29102 2.06426 25 ft 5 kts 291°
2026-05-07 06:26 41.29117 2.06388 26 ft 5 kts 303°
2026-05-07 06:26 41.29139 2.06356 24 ft 5 kts 315°
2026-05-07 06:26 41.29162 2.06326 23 ft 5 kts 317°
2026-05-07 06:26 41.29195 2.06307 20 ft 6 kts 337°
2026-05-07 06:27 41.29253 2.06277 21 ft 12 kts 340°
2026-05-07 06:27 41.29339 2.06235 23 ft 13 kts 348°
2026-05-07 06:27 41.29398 2.06253 22 ft 13 kts 38°
2026-05-07 06:27 41.29444 2.06362 19 ft 13 kts 66°
2026-05-07 06:28 41.29478 2.06478 20 ft 14 kts 71°
2026-05-07 06:28 41.29513 2.06587 17 ft 12 kts 54°
2026-05-07 06:28 41.29551 2.06683 17 ft 12 kts 56°
2026-05-07 06:28 41.29584 2.06783 19 ft 12 kts 59°
2026-05-07 06:29 41.29624 2.06879 20 ft 12 kts 64°
2026-05-07 06:29 41.29659 2.06978 23 ft 12 kts 65°
2026-05-07 06:29 41.29693 2.07078 27 ft 12 kts 66°
2026-05-07 06:29 41.29726 2.07178 26 ft 12 kts 65°
2026-05-07 06:30 41.29760 2.07277 24 ft 12 kts 65°
2026-05-07 06:30 41.29795 2.07378 25 ft 12 kts 65°
2026-05-07 06:30 41.29829 2.07476 22 ft 12 kts 65°
2026-05-07 06:30 41.29863 2.07576 18 ft 12 kts 65°
2026-05-07 06:31 41.29897 2.07676 18 ft 12 kts 65°
2026-05-07 06:31 41.29932 2.07775 21 ft 12 kts 65°
2026-05-07 06:31 41.29967 2.07875 25 ft 12 kts 65°
2026-05-07 06:31 41.30002 2.07974 25 ft 12 kts 65°
2026-05-07 06:32 41.30036 2.08074 30 ft 12 kts 66°
2026-05-07 06:32 41.30069 2.08174 27 ft 12 kts 66°
2026-05-07 06:32 41.30103 2.08275 26 ft 12 kts 66°
2026-05-07 06:32 41.30135 2.08374 27 ft 12 kts 66°
2026-05-07 06:33 41.30171 2.08473 27 ft 12 kts 64°
2026-05-07 06:33 41.30204 2.08573 28 ft 12 kts 65°
2026-05-07 06:33 41.30238 2.08673 26 ft 12 kts 66°
2026-05-07 06:33 41.30272 2.08772 27 ft 12 kts 65°
2026-05-07 06:34 41.30307 2.08872 27 ft 12 kts 65°
2026-05-07 06:34 41.30341 2.08971 26 ft 12 kts 65°
2026-05-07 06:34 41.30376 2.09071 25 ft 12 kts 65°
2026-05-07 06:34 41.30410 2.09170 29 ft 12 kts 65°
2026-05-07 06:35 41.30445 2.09270 30 ft 12 kts 66°
2026-05-07 06:35 41.30479 2.09370 30 ft 12 kts 65°
2026-05-07 06:35 41.30513 2.09469 31 ft 12 kts 65°
2026-05-07 06:35 41.30547 2.09568 29 ft 12 kts 65°
2026-05-07 06:36 41.30581 2.09669 30 ft 12 kts 66°
2026-05-07 06:36 41.30614 2.09769 29 ft 12 kts 66°
2026-05-07 06:36 41.30648 2.09869 28 ft 12 kts 66°
2026-05-07 06:36 41.30682 2.09969 24 ft 12 kts 66°
2026-05-07 06:37 41.30717 2.10067 20 ft 12 kts 64°
2026-05-07 06:37 41.30751 2.10166 22 ft 12 kts 66°
2026-05-07 06:37 41.30760 2.10256 19 ft 9 kts 103°
2026-05-07 06:37 41.30754 2.10272 19 ft 0 kts 121°
2026-05-07 06:38 41.30751 2.10279 20 ft 1 kts 119°
2026-05-07 06:38 41.30744 2.10293 18 ft 2 kts 131°
2026-05-07 06:38 41.30732 2.10300 19 ft 0 kts 154°
2026-05-07 06:41 41.30701 2.10320 19 ft 1 kts 154°
2026-05-07 06:41 41.30690 2.10327 19 ft 2 kts 155°
2026-05-07 06:41 41.30679 2.10334 20 ft 3 kts 155°
2026-05-07 06:42 41.30630 2.10362 24 ft 8 kts 161°
2026-05-07 06:42 41.30591 2.10359 25 ft 3 kts 197°
2026-05-07 06:42 41.30576 2.10346 24 ft 3 kts 217°
2026-05-07 06:42 41.30555 2.10321 24 ft 6 kts 234°
2026-05-07 06:43 41.30549 2.10304 25 ft 0 kts 246°
2026-05-07 06:43 41.30533 2.10255 23 ft 15 kts 246°
2026-05-07 06:44 41.30396 2.09856 25 ft 87 kts 245°
2026-05-07 06:44 41.30031 2.08789 27 ft 165 kts 245°
2026-05-07 06:44 41.29476 2.07093 52 ft 229 kts 249°
2026-05-07 06:44 41.28809 2.05141 1029 ft 234 kts 245°
2026-05-07 06:45 41.28119 2.03162 2059 ft 240 kts 245°
2026-05-07 06:45 41.27456 2.01175 2845 ft 233 kts 245°
2026-05-07 06:45 41.26764 1.99205 3360 ft 235 kts 245°
2026-05-07 06:45 41.26062 1.97201 3643 ft 246 kts 245°
2026-05-07 06:46 41.25336 1.95113 4147 ft 251 kts 245°
2026-05-07 06:46 41.24601 1.92988 4676 ft 254 kts 245°
2026-05-07 06:46 41.23862 1.90849 5276 ft 255 kts 246°
2026-05-07 06:46 41.23123 1.88709 5830 ft 256 kts 246°
2026-05-07 06:47 41.22535 1.86476 6267 ft 259 kts 260°
2026-05-07 06:47 41.22286 1.84076 6668 ft 265 kts 264°
2026-05-07 06:47 41.22092 1.81617 7122 ft 270 kts 264°
2026-05-07 06:47 41.21878 1.79137 7671 ft 271 kts 263°
2026-05-07 06:48 41.21646 1.76636 8166 ft 274 kts 263°
2026-05-07 06:48 41.21404 1.74111 8687 ft 277 kts 263°
2026-05-07 06:48 41.21380 1.71545 8989 ft 282 kts 284°
2026-05-07 06:48 41.22250 1.69203 9226 ft 288 kts 310°
2026-05-07 06:49 41.23701 1.67337 9606 ft 294 kts 317°
2026-05-07 06:49 41.25234 1.65529 10160 ft 295 kts 317°
2026-05-07 06:49 41.26773 1.63716 10664 ft 297 kts 317°
2026-05-07 06:49 41.28330 1.61873 11152 ft 301 kts 317°
2026-05-07 06:50 41.29898 1.60007 11645 ft 304 kts 317°
2026-05-07 06:50 41.31480 1.58113 12131 ft 308 kts 316°
2026-05-07 06:50 41.33079 1.56198 12643 ft 310 kts 317°
2026-05-07 06:50 41.34888 1.54630 12979 ft 316 kts 341°
2026-05-07 06:51 41.37056 1.54039 13303 ft 320 kts 350°
2026-05-07 06:51 41.39277 1.53583 13743 ft 325 kts 350°
2026-05-07 06:51 41.41511 1.53110 14231 ft 326 kts 349°
2026-05-07 06:51 41.43750 1.52627 14741 ft 326 kts 349°
2026-05-07 06:52 41.46000 1.52134 15193 ft 328 kts 349°
2026-05-07 06:52 41.48262 1.51631 15661 ft 331 kts 349°
2026-05-07 06:52 41.50544 1.51121 16120 ft 333 kts 349°
2026-05-07 06:52 41.52811 1.50610 16590 ft 335 kts 348°
2026-05-07 06:53 41.55147 1.50083 17082 ft 338 kts 348°
2026-05-07 06:53 41.57509 1.49553 17219 ft 352 kts 348°
2026-05-07 06:53 41.59946 1.49010 17365 ft 367 kts 349°
2026-05-07 06:53 41.62514 1.48439 17477 ft 382 kts 349°
2026-05-07 06:54 41.65186 1.47845 17608 ft 396 kts 349°
2026-05-07 06:54 41.67951 1.47228 17798 ft 409 kts 349°
2026-05-07 06:54 41.70787 1.46598 18168 ft 417 kts 349°
2026-05-07 06:54 41.73670 1.45956 18600 ft 422 kts 349°
2026-05-07 06:55 41.76578 1.45310 19092 ft 424 kts 349°
2026-05-07 06:55 41.79494 1.44660 19596 ft 427 kts 348°
2026-05-07 06:55 41.82433 1.44003 20083 ft 430 kts 348°
2026-05-07 06:55 41.85395 1.43340 20541 ft 433 kts 348°
2026-05-07 06:56 41.88377 1.42672 20995 ft 436 kts 348°
2026-05-07 06:56 41.91385 1.41997 21461 ft 439 kts 348°
2026-05-07 06:56 41.94404 1.41321 21921 ft 442 kts 348°
2026-05-07 06:56 41.97449 1.40637 22372 ft 445 kts 348°
2026-05-07 06:57 42.00520 1.39944 22812 ft 448 kts 348°
2026-05-07 06:57 42.03605 1.39248 23245 ft 451 kts 348°
2026-05-07 06:57 42.06716 1.38547 23660 ft 454 kts 347°
2026-05-07 06:57 42.09844 1.37842 24021 ft 457 kts 347°
2026-05-07 06:58 42.12987 1.37133 24392 ft 459 kts 347°
2026-05-07 06:58 42.16149 1.36418 24764 ft 461 kts 347°
2026-05-07 06:58 42.19319 1.35700 25092 ft 464 kts 347°
2026-05-07 06:58 42.22512 1.34976 25441 ft 466 kts 347°
2026-05-07 06:59 42.25719 1.34248 25775 ft 469 kts 347°
2026-05-07 06:59 42.28943 1.33516 26074 ft 471 kts 347°
2026-05-07 06:59 42.32179 1.32781 26387 ft 473 kts 347°
2026-05-07 06:59 42.35427 1.32040 26701 ft 475 kts 347°
2026-05-07 07:00 42.38663 1.31193 26953 ft 471 kts 339°
2026-05-07 07:00 42.41578 1.29262 27006 ft 466 kts 318°
2026-05-07 07:00 42.43723 1.26133 27256 ft 458 kts 297°
2026-05-07 07:00 42.44891 1.22189 27550 ft 450 kts 277°
2026-05-07 07:01 42.44933 1.17995 27800 ft 447 kts 257°
2026-05-07 07:01 42.43865 1.14074 28061 ft 447 kts 238°
2026-05-07 07:01 42.41829 1.10912 28284 ft 451 kts 218°
2026-05-07 07:01 42.39159 1.08658 28538 ft 453 kts 211°
2026-05-07 07:02 42.36438 1.06499 28776 ft 454 kts 215°
2026-05-07 07:02 42.33900 1.03958 29045 ft 454 kts 220°
2026-05-07 07:02 42.31332 1.01480 29227 ft 456 kts 208°
2026-05-07 07:02 42.28370 0.99914 29267 ft 456 kts 204°
2026-05-07 07:03 42.25640 0.97816 29249 ft 454 kts 223°
2026-05-07 07:03 42.23658 0.94540 29379 ft 454 kts 243°
2026-05-07 07:03 42.22673 0.90510 29548 ft 456 kts 262°
2026-05-07 07:03 42.22763 0.86229 29791 ft 456 kts 275°
2026-05-07 07:04 42.23123 0.77661 30120 ft 457 kts 266°
2026-05-07 07:04 42.22972 0.73401 30500 ft 453 kts 264°
2026-05-07 07:04 42.22701 0.69176 30842 ft 450 kts 262°
2026-05-07 07:05 42.22366 0.64978 31087 ft 449 kts 262°
2026-05-07 07:05 42.22002 0.60789 31275 ft 450 kts 261°
2026-05-07 07:05 42.21631 0.56594 31491 ft 450 kts 261°
2026-05-07 07:05 42.21262 0.52407 31760 ft 449 kts 261°
2026-05-07 07:06 42.20902 0.48238 32043 ft 447 kts 261°
2026-05-07 07:06 42.20546 0.44082 32272 ft 446 kts 261°
2026-05-07 07:06 42.20199 0.39983 32476 ft 446 kts 261°
2026-05-07 07:06 42.19848 0.35824 32637 ft 447 kts 261°
2026-05-07 07:07 42.19495 0.31656 32756 ft 448 kts 261°
2026-05-07 07:07 42.19140 0.27469 32848 ft 450 kts 261°
2026-05-07 07:07 42.18782 0.23273 32959 ft 451 kts 261°
2026-05-07 07:07 42.18422 0.19075 33074 ft 451 kts 261°
2026-05-07 07:08 42.18060 0.14866 33181 ft 452 kts 261°
2026-05-07 07:08 42.17697 0.10653 33269 ft 453 kts 261°
2026-05-07 07:08 42.16961 0.02198 33459 ft 455 kts 261°
2026-05-07 07:09 42.16216 -0.06282 33611 ft 457 kts 261°
2026-05-07 07:09 42.15462 -0.14793 33749 ft 458 kts 261°
2026-05-07 07:10 42.14700 -0.23334 33890 ft 460 kts 261°
2026-05-07 07:10 42.13930 -0.31893 33991 ft 461 kts 261°
2026-05-07 07:11 42.13150 -0.40475 34078 ft 462 kts 261°
2026-05-07 07:11 42.12362 -0.49084 34181 ft 463 kts 260°
2026-05-07 07:12 42.11565 -0.57711 34236 ft 465 kts 260°
2026-05-07 07:12 42.10760 -0.66356 34311 ft 466 kts 260°
2026-05-07 07:13 42.09947 -0.75011 34367 ft 466 kts 260°
2026-05-07 07:13 42.09264 -0.82222 34411 ft 467 kts 260°
2026-05-07 07:14 42.08301 -0.92324 34465 ft 469 kts 260°
2026-05-07 07:14 42.07463 -1.01028 34513 ft 470 kts 260°
2026-05-07 07:15 42.06754 -1.08342 34545 ft 470 kts 260°
2026-05-07 07:15 42.05906 -1.17019 34583 ft 471 kts 260°
2026-05-07 07:16 42.05044 -1.25776 34620 ft 472 kts 260°
2026-05-07 07:16 42.04173 -1.34549 34654 ft 473 kts 260°
2026-05-07 07:17 42.03296 -1.43323 34698 ft 474 kts 260°
2026-05-07 07:17 42.02409 -1.52115 34720 ft 475 kts 260°
2026-05-07 07:18 42.01514 -1.60926 34747 ft 476 kts 260°
2026-05-07 07:18 42.00610 -1.69748 34774 ft 476 kts 260°
2026-05-07 07:19 41.99699 -1.78577 34794 ft 477 kts 260°
2026-05-07 07:19 41.98779 -1.87411 34828 ft 477 kts 260°
2026-05-07 07:20 41.97854 -1.96250 34854 ft 478 kts 260°
2026-05-07 07:20 41.96919 -2.05101 34883 ft 479 kts 260°
2026-05-07 07:21 41.95976 -2.13956 34912 ft 479 kts 260°
2026-05-07 07:21 41.95026 -2.22819 34943 ft 479 kts 260°
2026-05-07 07:22 41.94076 -2.31631 34962 ft 480 kts 260°
2026-05-07 07:22 41.93109 -2.40508 34982 ft 480 kts 260°
2026-05-07 07:23 41.92136 -2.49383 35003 ft 481 kts 259°
2026-05-07 07:23 41.91156 -2.58266 35035 ft 481 kts 259°
2026-05-07 07:24 41.90168 -2.67146 35058 ft 481 kts 259°
2026-05-07 07:24 41.89172 -2.76038 35074 ft 482 kts 259°
2026-05-07 07:25 41.87664 -2.89380 35108 ft 482 kts 259°
2026-05-07 07:26 41.86649 -2.98276 35127 ft 482 kts 259°
2026-05-07 07:26 41.85633 -3.07129 35150 ft 483 kts 259°
2026-05-07 07:27 41.84604 -3.16022 35161 ft 483 kts 259°
2026-05-07 07:27 41.83568 -3.24915 35199 ft 482 kts 259°
2026-05-07 07:28 41.82524 -3.33816 35222 ft 483 kts 259°
2026-05-07 07:28 41.81475 -3.42708 35246 ft 483 kts 258°
2026-05-07 07:29 41.80418 -3.51602 35270 ft 483 kts 258°
2026-05-07 07:29 41.79353 -3.60497 35302 ft 483 kts 258°
2026-05-07 07:30 41.78290 -3.69313 35319 ft 483 kts 258°
2026-05-07 07:30 41.77212 -3.78199 35339 ft 483 kts 258°
2026-05-07 07:31 41.76127 -3.87084 35362 ft 483 kts 258°
2026-05-07 07:31 41.75035 -3.95963 35385 ft 483 kts 258°
2026-05-07 07:32 41.73936 -4.04845 35407 ft 483 kts 258°
2026-05-07 07:32 41.72837 -4.13673 35429 ft 483 kts 258°
2026-05-07 07:33 41.71727 -4.22521 35461 ft 482 kts 258°
2026-05-07 07:33 41.70609 -4.31379 35468 ft 483 kts 258°
2026-05-07 07:34 41.69482 -4.40257 35471 ft 483 kts 258°
2026-05-07 07:34 41.68354 -4.49083 35469 ft 483 kts 258°
2026-05-07 07:35 41.67215 -4.57942 35480 ft 483 kts 258°
2026-05-07 07:35 41.66066 -4.66817 35481 ft 484 kts 258°
2026-05-07 07:36 41.64916 -4.75645 35487 ft 484 kts 258°
2026-05-07 07:36 41.63753 -4.84523 35490 ft 484 kts 257°
2026-05-07 07:37 41.62583 -4.93389 35500 ft 485 kts 257°
2026-05-07 07:37 41.61405 -5.02268 35487 ft 485 kts 257°
2026-05-07 07:38 41.60221 -5.11138 35517 ft 485 kts 257°
2026-05-07 07:38 41.59028 -5.20018 35506 ft 486 kts 257°
2026-05-07 07:39 41.57834 -5.28855 35521 ft 486 kts 257°
2026-05-07 07:39 41.56624 -5.37756 35525 ft 486 kts 257°
2026-05-07 07:40 41.55407 -5.46659 35530 ft 486 kts 257°
2026-05-07 07:40 41.54191 -5.55500 35538 ft 487 kts 257°
2026-05-07 07:41 41.52987 -5.64395 35542 ft 488 kts 260°
2026-05-07 07:41 41.52290 -5.73425 35536 ft 489 kts 263°
2026-05-07 07:42 41.51677 -5.82480 35549 ft 489 kts 263°
2026-05-07 07:42 41.51033 -5.91534 35557 ft 489 kts 263°
2026-05-07 07:43 41.50369 -6.00529 35546 ft 490 kts 263°
2026-05-07 07:43 41.49692 -6.09592 35572 ft 490 kts 263°
2026-05-07 07:44 41.49011 -6.18661 35588 ft 490 kts 263°
2026-05-07 07:44 41.48628 -6.27742 35585 ft 492 kts 270°
2026-05-07 07:45 41.49368 -6.36820 35603 ft 493 kts 278°
2026-05-07 07:45 41.50598 -6.45789 35594 ft 494 kts 279°
2026-05-07 07:46 41.51828 -6.54794 35635 ft 493 kts 279°
2026-05-07 07:46 41.53024 -6.63822 35664 ft 493 kts 279°
2026-05-07 07:47 41.54196 -6.72845 35679 ft 493 kts 279°
2026-05-07 07:47 41.55361 -6.81886 35691 ft 493 kts 279°
2026-05-07 07:48 41.56511 -6.90862 35717 ft 493 kts 279°
2026-05-07 07:48 41.57661 -6.99893 35733 ft 493 kts 279°
2026-05-07 07:49 41.58806 -7.08934 35758 ft 492 kts 279°
2026-05-07 07:49 41.59941 -7.17958 35773 ft 492 kts 279°
2026-05-07 07:50 41.61063 -7.26938 35794 ft 492 kts 279°
2026-05-07 07:50 41.62184 -7.35969 35808 ft 491 kts 279°
2026-05-07 07:51 41.63295 -7.44981 35840 ft 491 kts 280°
2026-05-07 07:51 41.64397 -7.53982 35858 ft 490 kts 280°
2026-05-07 07:52 41.65485 -7.62922 35868 ft 490 kts 280°
2026-05-07 07:52 41.66572 -7.71918 35887 ft 489 kts 280°
2026-05-07 07:53 41.67648 -7.80884 35913 ft 488 kts 280°
2026-05-07 07:53 41.68716 -7.89847 35936 ft 487 kts 280°
2026-05-07 07:54 41.69770 -7.98752 35944 ft 486 kts 280°
2026-05-07 07:54 41.70825 -8.07711 35962 ft 485 kts 280°
2026-05-07 07:55 41.71860 -8.16578 35970 ft 484 kts 280°
2026-05-07 07:55 41.72896 -8.25510 35963 ft 484 kts 280°
2026-05-07 07:56 41.73923 -8.34431 35975 ft 483 kts 280°
2026-05-07 07:56 41.74935 -8.43286 36011 ft 482 kts 280°
2026-05-07 07:57 41.75943 -8.52164 36011 ft 482 kts 280°
2026-05-07 07:57 41.76944 -8.61043 36014 ft 481 kts 280°
2026-05-07 07:58 41.77929 -8.69848 36018 ft 480 kts 280°
2026-05-07 07:58 41.78915 -8.78718 35994 ft 480 kts 280°
2026-05-07 07:59 41.79891 -8.87562 36011 ft 479 kts 280°
2026-05-07 07:59 41.80861 -8.96414 36002 ft 479 kts 280°
2026-05-07 08:00 41.81822 -9.05253 36000 ft 478 kts 280°
2026-05-07 08:00 41.82769 -9.14028 35989 ft 478 kts 280°
2026-05-07 08:01 41.83714 -9.22849 35994 ft 478 kts 280°
2026-05-07 08:01 41.84651 -9.31662 35997 ft 477 kts 280°
2026-05-07 08:02 41.85425 -9.38987 36001 ft 476 kts 280°
2026-05-07 08:02 41.86496 -9.49213 36000 ft 475 kts 280°
2026-05-07 08:03 41.87259 -9.56539 36009 ft 475 kts 280°
2026-05-07 08:03 41.88165 -9.65310 36013 ft 474 kts 280°
2026-05-07 08:04 41.89065 -9.74090 36025 ft 473 kts 280°
2026-05-07 08:04 41.89950 -9.82794 36038 ft 472 kts 280°
2026-05-07 08:05 41.90833 -9.91537 36056 ft 471 kts 280°
2026-05-07 08:05 41.91704 -10.00230 36060 ft 471 kts 280°
2026-05-07 08:06 41.92572 -10.08969 36093 ft 470 kts 280°
2026-05-07 08:06 41.93427 -10.17624 36084 ft 469 kts 279°
2026-05-07 08:07 41.94613 -10.26244 36060 ft 467 kts 284°
2026-05-07 08:07 41.96047 -10.34765 36082 ft 466 kts 284°
2026-05-07 08:08 41.97463 -10.43225 36089 ft 466 kts 284°
2026-05-07 08:08 41.98864 -10.51740 36094 ft 465 kts 284°
2026-05-07 08:09 42.00242 -10.60197 36068 ft 465 kts 284°
2026-05-07 08:09 42.01621 -10.68714 36062 ft 465 kts 284°
2026-05-07 08:10 42.02990 -10.77213 36042 ft 465 kts 284°
2026-05-07 08:10 42.04354 -10.85717 36042 ft 465 kts 284°
2026-05-07 08:11 42.05712 -10.94222 36024 ft 465 kts 284°
2026-05-07 08:11 42.07057 -11.02689 36014 ft 465 kts 283°
2026-05-07 08:12 42.08403 -11.11209 36011 ft 465 kts 283°
2026-05-07 08:12 42.09741 -11.19722 35992 ft 465 kts 283°
2026-05-07 08:13 42.11074 -11.28246 35957 ft 465 kts 283°
2026-05-07 08:13 42.12393 -11.36726 35992 ft 465 kts 283°
2026-05-07 08:14 42.13715 -11.45264 35979 ft 465 kts 283°
2026-05-07 08:14 42.15029 -11.53802 35993 ft 465 kts 283°
2026-05-07 08:15 42.16330 -11.62295 35987 ft 465 kts 283°
2026-05-07 08:15 42.17631 -11.70834 35985 ft 465 kts 283°
2026-05-07 08:16 42.18927 -11.79385 35999 ft 464 kts 283°
2026-05-07 08:16 42.20214 -11.87920 36022 ft 464 kts 282°
2026-05-07 08:17 42.21486 -11.96401 36023 ft 464 kts 282°
2026-05-07 08:17 42.22762 -12.04960 36037 ft 463 kts 282°
2026-05-07 08:18 42.24021 -12.13442 36047 ft 463 kts 282°
2026-05-07 08:18 42.25281 -12.21985 36053 ft 463 kts 282°
2026-05-07 08:19 42.26529 -12.30483 36062 ft 462 kts 282°
2026-05-07 08:19 42.27773 -12.39011 36059 ft 462 kts 282°
2026-05-07 08:20 42.29013 -12.47548 36059 ft 462 kts 282°
2026-05-07 08:20 42.30236 -12.56023 36079 ft 462 kts 282°
2026-05-07 08:21 42.31460 -12.64543 36081 ft 462 kts 281°
2026-05-07 08:21 42.32677 -12.73066 36063 ft 462 kts 281°
2026-05-07 08:22 42.33888 -12.81598 36060 ft 462 kts 281°
2026-05-07 08:22 42.35086 -12.90084 36085 ft 461 kts 281°
2026-05-07 08:23 42.36286 -12.98629 36077 ft 462 kts 281°
2026-05-07 08:23 42.37479 -13.07178 36070 ft 462 kts 281°
2026-05-07 08:24 42.38659 -13.15679 36074 ft 462 kts 281°
2026-05-07 08:24 42.39839 -13.24229 36055 ft 462 kts 281°
2026-05-07 08:25 42.41014 -13.32793 36046 ft 462 kts 281°
2026-05-07 08:25 42.42175 -13.41303 36043 ft 462 kts 280°
2026-05-07 08:26 42.43917 -13.54164 36036 ft 463 kts 280°
2026-05-07 08:26 42.45070 -13.62739 36025 ft 463 kts 280°
2026-05-07 08:27 42.46217 -13.71323 36028 ft 463 kts 280°
2026-05-07 08:27 42.47360 -13.79923 36026 ft 464 kts 280°
2026-05-07 08:28 42.48491 -13.88487 36026 ft 464 kts 279°
2026-05-07 08:28 42.49625 -13.97119 36025 ft 464 kts 279°
2026-05-07 08:29 42.50371 -14.05809 36012 ft 464 kts 274°
2026-05-07 08:29 42.50799 -14.14501 36016 ft 464 kts 274°
2026-05-07 08:30 42.51228 -14.23275 36018 ft 465 kts 274°
2026-05-07 08:30 42.51666 -14.32027 36014 ft 465 kts 274°
2026-05-07 08:31 42.52104 -14.40739 35994 ft 466 kts 274°
2026-05-07 08:31 42.52540 -14.49518 35996 ft 466 kts 274°
2026-05-07 08:32 42.52969 -14.58299 36012 ft 467 kts 273°
2026-05-07 08:32 42.53390 -14.67061 36013 ft 467 kts 273°
2026-05-07 08:33 42.53806 -14.75854 35996 ft 468 kts 273°
2026-05-07 08:33 42.54215 -14.84666 36017 ft 468 kts 273°
2026-05-07 08:34 42.54619 -14.93491 36023 ft 468 kts 273°
2026-05-07 08:34 42.55013 -15.02270 36023 ft 469 kts 273°
2026-05-07 08:35 42.55403 -15.11105 36004 ft 469 kts 272°
2026-05-07 08:35 42.55787 -15.19956 36019 ft 470 kts 272°
2026-05-07 08:36 42.56165 -15.28814 36018 ft 470 kts 272°
2026-05-07 08:36 42.56534 -15.37641 36024 ft 470 kts 272°
2026-05-07 08:37 42.56899 -15.46512 36020 ft 471 kts 272°
2026-05-07 08:37 42.57256 -15.55388 36020 ft 472 kts 272°
2026-05-07 08:38 42.57608 -15.64279 36026 ft 472 kts 272°
2026-05-07 08:38 42.57952 -15.73176 36032 ft 472 kts 272°
2026-05-07 08:39 42.58291 -15.82100 36033 ft 473 kts 271°
2026-05-07 08:39 42.58621 -15.90975 36034 ft 474 kts 271°
2026-05-07 08:40 42.58947 -15.99921 36029 ft 474 kts 271°
2026-05-07 08:40 42.59266 -16.08896 36033 ft 475 kts 271°
2026-05-07 08:41 42.59579 -16.17858 36029 ft 475 kts 271°
2026-05-07 08:41 42.59882 -16.26785 36030 ft 476 kts 271°
2026-05-07 08:42 42.60182 -16.35787 36028 ft 477 kts 271°
2026-05-07 08:42 42.60475 -16.44797 36029 ft 477 kts 271°
2026-05-07 08:43 42.60759 -16.53758 36018 ft 478 kts 271°
2026-05-07 08:43 42.61038 -16.62782 36030 ft 479 kts 270°
2026-05-07 08:44 42.61310 -16.71820 36011 ft 480 kts 270°
2026-05-07 08:44 42.61576 -16.80896 36044 ft 480 kts 270°
2026-05-07 08:45 42.61835 -16.89947 36053 ft 480 kts 270°
2026-05-07 08:45 42.62085 -16.98967 36039 ft 481 kts 270°
2026-05-07 08:46 42.62330 -17.08040 36045 ft 481 kts 270°
2026-05-07 08:46 42.62568 -17.17135 36055 ft 482 kts 270°
2026-05-07 08:47 42.62800 -17.26266 36039 ft 483 kts 270°
2026-05-07 08:47 42.63022 -17.35325 36064 ft 483 kts 270°
2026-05-07 08:48 42.63240 -17.44450 36057 ft 484 kts 270°
2026-05-07 08:48 42.63450 -17.53595 36072 ft 484 kts 269°
2026-05-07 08:49 42.63620 -17.61204 36076 ft 484 kts 269°
2026-05-07 08:49 42.63848 -17.71848 36080 ft 485 kts 269°
2026-05-07 08:50 42.64006 -17.79463 36095 ft 485 kts 269°
2026-05-07 08:50 42.64189 -17.88650 36096 ft 486 kts 269°
2026-05-07 08:51 42.64365 -17.97845 36086 ft 486 kts 269°
2026-05-07 08:51 42.64533 -18.06991 36113 ft 486 kts 269°
2026-05-07 08:52 42.64694 -18.16192 36111 ft 487 kts 269°
2026-05-07 08:52 42.64848 -18.25358 36119 ft 487 kts 269°
2026-05-07 08:53 42.64995 -18.34584 36145 ft 487 kts 269°
2026-05-07 08:53 42.65135 -18.43821 36119 ft 488 kts 268°
2026-05-07 08:54 42.65267 -18.52988 36149 ft 488 kts 268°
2026-05-07 08:54 42.65392 -18.62215 36169 ft 488 kts 268°
2026-05-07 08:55 42.65509 -18.71463 36186 ft 488 kts 268°
2026-05-07 08:55 42.65620 -18.80696 36181 ft 489 kts 268°
2026-05-07 08:56 42.65723 -18.89932 36183 ft 489 kts 268°
2026-05-07 08:56 42.65818 -18.99131 36186 ft 489 kts 268°
2026-05-07 08:57 42.65906 -19.08381 36183 ft 490 kts 268°
2026-05-07 08:57 42.65987 -19.17643 36193 ft 490 kts 268°
2026-05-07 08:58 42.66060 -19.26866 36172 ft 490 kts 268°
2026-05-07 08:58 42.66126 -19.36145 36184 ft 491 kts 268°
2026-05-07 08:59 42.66184 -19.45434 36196 ft 491 kts 268°
2026-05-07 08:59 42.66235 -19.54719 36195 ft 491 kts 268°
2026-05-07 09:00 42.66279 -19.63971 36194 ft 492 kts 268°
2026-05-07 09:00 42.66315 -19.73276 36194 ft 492 kts 268°
2026-05-07 09:01 42.66344 -19.82607 36186 ft 493 kts 268°
2026-05-07 09:01 42.66365 -19.91919 36207 ft 493 kts 267°
2026-05-07 09:02 42.66378 -20.01197 36206 ft 494 kts 267°
2026-05-07 09:02 42.66384 -20.10529 36210 ft 494 kts 267°
2026-05-07 09:03 42.66383 -20.19879 36218 ft 494 kts 267°
2026-05-07 09:03 42.66374 -20.29241 36224 ft 495 kts 267°
2026-05-07 09:04 42.66357 -20.38595 36215 ft 495 kts 267°
2026-05-07 09:04 42.66333 -20.47897 36238 ft 495 kts 267°
2026-05-07 09:05 42.66301 -20.57260 36217 ft 496 kts 267°
2026-05-07 09:05 42.66261 -20.66636 36239 ft 496 kts 267°
2026-05-07 09:06 42.66214 -20.76024 36263 ft 496 kts 267°
2026-05-07 09:06 42.66159 -20.85371 36277 ft 496 kts 267°
2026-05-07 09:07 42.66096 -20.94765 36295 ft 496 kts 267°
2026-05-07 09:07 42.66026 -21.04158 36286 ft 497 kts 267°
2026-05-07 09:08 42.65948 -21.13560 36308 ft 497 kts 267°
2026-05-07 09:08 42.65863 -21.22896 36308 ft 497 kts 267°
2026-05-07 09:09 42.65769 -21.32311 36324 ft 497 kts 267°
2026-05-07 09:09 42.65669 -21.41648 36339 ft 497 kts 267°
2026-05-07 09:10 42.65560 -21.51041 36351 ft 497 kts 267°
2026-05-07 09:10 42.65443 -21.60451 36357 ft 497 kts 267°
2026-05-07 09:11 42.65319 -21.69851 36348 ft 497 kts 267°
2026-05-07 09:11 42.65188 -21.79198 36370 ft 497 kts 267°
2026-05-07 09:12 42.65049 -21.88604 36353 ft 498 kts 267°
2026-05-07 09:12 42.64901 -21.98007 36354 ft 498 kts 267°
2026-05-07 09:13 42.64747 -22.07368 36345 ft 498 kts 267°
2026-05-07 09:13 42.64585 -22.16769 36349 ft 498 kts 266°
2026-05-07 09:14 42.64413 -22.26214 36356 ft 498 kts 267°
2026-05-07 09:14 42.64236 -22.35580 36371 ft 499 kts 266°
2026-05-07 09:15 42.64050 -22.45021 36394 ft 499 kts 266°
2026-05-07 09:15 42.63856 -22.54442 36404 ft 499 kts 266°
2026-05-07 09:16 42.63656 -22.63809 36397 ft 499 kts 266°
2026-05-07 09:16 42.63446 -22.73241 36398 ft 499 kts 266°
2026-05-07 09:17 42.63229 -22.82679 36396 ft 499 kts 266°
2026-05-07 09:17 42.63005 -22.92056 36394 ft 499 kts 266°
2026-05-07 09:18 42.62772 -23.01497 36367 ft 499 kts 266°
2026-05-07 09:18 42.62532 -23.10931 36345 ft 500 kts 266°
2026-05-07 09:19 42.62283 -23.20377 36370 ft 501 kts 266°
2026-05-07 09:19 42.62028 -23.29767 36387 ft 501 kts 266°
2026-05-07 09:20 42.61764 -23.39224 36367 ft 501 kts 266°
2026-05-07 09:20 42.61492 -23.48672 36394 ft 501 kts 266°
2026-05-07 09:21 42.61213 -23.58094 36409 ft 501 kts 266°
2026-05-07 09:21 42.60925 -23.67555 36415 ft 501 kts 266°
2026-05-07 09:22 42.60629 -23.77006 36472 ft 500 kts 266°
2026-05-07 09:22 42.60329 -23.86378 36536 ft 499 kts 266°
2026-05-07 09:23 42.60019 -23.95795 36641 ft 496 kts 267°
2026-05-07 09:23 42.59706 -24.05086 36722 ft 494 kts 267°
2026-05-07 09:24 42.59546 -24.09738 36864 ft 491 kts 267°
2026-05-07 09:24 42.59385 -24.14377 36930 ft 490 kts 267°
2026-05-07 09:24 42.59059 -24.23621 36935 ft 490 kts 267°
2026-05-07 09:25 42.58724 -24.32873 36940 ft 490 kts 267°
2026-05-07 09:25 42.58382 -24.42130 36863 ft 492 kts 267°
2026-05-07 09:26 42.58034 -24.51344 36845 ft 492 kts 267°
2026-05-07 09:26 42.57675 -24.60644 36741 ft 494 kts 267°
2026-05-07 09:27 42.57308 -24.69986 36723 ft 495 kts 267°
2026-05-07 09:28 42.56743 -24.83952 36607 ft 497 kts 267°
2026-05-07 09:28 42.56355 -24.93310 36651 ft 496 kts 267°
2026-05-07 09:29 42.55959 -25.02680 36634 ft 496 kts 267°
2026-05-07 09:29 42.55556 -25.12060 36589 ft 498 kts 267°
2026-05-07 09:30 42.55145 -25.21426 36613 ft 497 kts 267°
2026-05-07 09:30 42.54729 -25.30718 36617 ft 497 kts 267°
2026-05-07 09:31 42.54303 -25.40073 36605 ft 497 kts 267°
2026-05-07 09:31 42.53870 -25.49420 36613 ft 497 kts 267°
2026-05-07 09:32 42.53429 -25.58785 36574 ft 498 kts 267°
2026-05-07 09:32 42.52979 -25.68147 36550 ft 498 kts 267°
2026-05-07 09:33 42.52523 -25.77508 36572 ft 497 kts 267°
2026-05-07 09:33 42.52061 -25.86808 36568 ft 497 kts 267°
2026-05-07 09:34 42.51588 -25.96185 36570 ft 497 kts 267°
2026-05-07 09:34 42.51111 -26.05498 36542 ft 498 kts 267°
2026-05-07 09:35 42.50624 -26.14850 36571 ft 497 kts 267°
2026-05-07 09:35 42.50127 -26.24241 36587 ft 497 kts 267°
2026-05-07 09:36 42.49628 -26.33521 36596 ft 496 kts 267°
2026-05-07 09:36 42.49119 -26.42856 36596 ft 496 kts 267°
2026-05-07 09:37 42.48690 -26.50610 36615 ft 496 kts 267°
2026-05-07 09:37 42.48168 -26.59932 36623 ft 496 kts 268°
2026-05-07 09:38 42.47639 -26.69241 36622 ft 495 kts 268°
2026-05-07 09:38 42.47103 -26.78535 36634 ft 495 kts 268°
2026-05-07 09:39 42.46562 -26.87786 36649 ft 495 kts 268°
2026-05-07 09:39 42.46010 -26.97092 36645 ft 495 kts 268°
2026-05-07 09:40 42.45453 -27.06345 36651 ft 494 kts 268°
2026-05-07 09:40 42.44888 -27.15624 36658 ft 494 kts 268°
2026-05-07 09:41 42.44315 -27.24894 36676 ft 494 kts 268°
2026-05-07 09:41 42.43735 -27.34169 36660 ft 494 kts 268°
2026-05-07 09:42 42.43147 -27.43442 36685 ft 493 kts 268°
2026-05-07 09:42 42.42557 -27.52623 36694 ft 493 kts 268°
2026-05-07 09:43 42.41956 -27.61866 36696 ft 492 kts 268°
2026-05-07 09:43 42.41349 -27.71097 36700 ft 492 kts 268°
2026-05-07 09:44 42.40733 -27.80332 36704 ft 492 kts 268°
2026-05-07 09:44 42.40115 -27.89493 36704 ft 492 kts 268°
2026-05-07 09:45 42.39486 -27.98702 36713 ft 491 kts 268°
2026-05-07 09:45 42.38849 -28.07925 36726 ft 491 kts 268°
2026-05-07 09:46 42.38205 -28.17133 36729 ft 491 kts 268°
2026-05-07 09:46 42.37555 -28.26325 36739 ft 491 kts 268°
2026-05-07 09:47 42.36902 -28.35454 36755 ft 490 kts 268°
2026-05-07 09:47 42.36239 -28.44614 36767 ft 490 kts 268°
2026-05-07 09:48 42.35569 -28.53771 36781 ft 489 kts 268°
2026-05-07 09:48 42.34893 -28.62916 36791 ft 488 kts 268°
2026-05-07 09:49 42.34210 -28.72054 36797 ft 488 kts 268°
2026-05-07 09:49 42.33519 -28.81186 36826 ft 488 kts 268°
2026-05-07 09:50 42.32823 -28.90300 36846 ft 487 kts 268°
2026-05-07 09:50 42.32125 -28.99350 36850 ft 487 kts 268°
2026-05-07 09:51 42.31415 -29.08447 36859 ft 486 kts 268°
2026-05-07 09:51 42.30699 -29.17533 36876 ft 486 kts 268°
2026-05-07 09:52 42.29977 -29.26601 36880 ft 485 kts 268°
2026-05-07 09:52 42.29247 -29.35673 36896 ft 485 kts 268°
2026-05-07 09:53 42.28515 -29.44679 36908 ft 484 kts 269°
2026-05-07 09:53 42.27774 -29.53713 36920 ft 484 kts 269°
2026-05-07 09:54 42.27024 -29.62762 36937 ft 483 kts 269°
2026-05-07 09:54 42.26276 -29.71713 36948 ft 483 kts 269°
2026-05-07 09:55 42.25514 -29.80738 36951 ft 482 kts 269°
2026-05-07 09:55 42.24747 -29.89734 36981 ft 481 kts 269°
2026-05-07 09:56 42.23978 -29.98665 36986 ft 481 kts 269°
2026-05-07 09:56 42.23200 -30.07626 36995 ft 480 kts 269°
2026-05-07 09:57 42.22415 -30.16580 36999 ft 480 kts 269°
2026-05-07 09:57 42.21629 -30.25465 37028 ft 479 kts 269°
2026-05-07 09:58 42.20831 -30.34408 37047 ft 478 kts 269°
2026-05-07 09:58 42.20030 -30.43311 37046 ft 478 kts 269°
2026-05-07 09:59 42.19222 -30.52201 37072 ft 477 kts 269°
2026-05-07 09:59 42.18413 -30.61034 37085 ft 476 kts 269°
2026-05-07 10:00 42.17594 -30.69898 37104 ft 475 kts 269°
2026-05-07 10:00 42.16769 -30.78751 37094 ft 475 kts 270°
2026-05-07 10:01 42.15943 -30.87539 37109 ft 475 kts 270°
2026-05-07 10:01 42.15106 -30.96374 37103 ft 474 kts 270°
2026-05-07 10:02 42.14264 -31.05177 37116 ft 474 kts 270°
2026-05-07 10:02 42.13416 -31.13983 37111 ft 473 kts 270°
2026-05-07 10:03 42.12561 -31.22779 37133 ft 473 kts 270°
2026-05-07 10:03 42.11700 -31.31572 37144 ft 472 kts 270°
2026-05-07 10:04 42.10839 -31.40284 37150 ft 472 kts 270°
2026-05-07 10:04 42.09970 -31.49040 37154 ft 471 kts 270°
2026-05-07 10:05 42.09091 -31.57787 37157 ft 470 kts 270°
2026-05-07 10:05 42.08215 -31.66450 37177 ft 469 kts 269°
2026-05-07 10:06 42.07327 -31.75162 37196 ft 469 kts 269°
2026-05-07 10:06 42.06435 -31.83856 37188 ft 468 kts 269°
2026-05-07 10:07 42.05536 -31.92538 37206 ft 467 kts 269°
2026-05-07 10:07 42.04639 -32.01153 37213 ft 466 kts 269°
2026-05-07 10:08 42.03731 -32.09797 37206 ft 466 kts 269°
2026-05-07 10:08 42.02825 -32.18368 37227 ft 465 kts 269°
2026-05-07 10:09 42.01905 -32.26998 37211 ft 465 kts 269°
2026-05-07 10:09 42.00982 -32.35600 37233 ft 463 kts 269°
2026-05-07 10:10 42.00060 -32.44122 37261 ft 463 kts 269°
2026-05-07 10:10 41.99129 -32.52673 37268 ft 461 kts 269°
2026-05-07 10:11 41.98198 -32.61164 37284 ft 461 kts 269°
2026-05-07 10:11 41.97259 -32.69665 37310 ft 459 kts 269°
2026-05-07 10:12 41.96313 -32.78175 37317 ft 459 kts 269°
2026-05-07 10:12 41.95370 -32.86593 37345 ft 457 kts 268°
2026-05-07 10:13 41.94419 -32.95038 37350 ft 456 kts 268°
2026-05-07 10:13 41.93463 -33.03457 37377 ft 455 kts 268°
2026-05-07 10:14 41.92505 -33.11848 37377 ft 454 kts 268°
2026-05-07 10:14 41.91545 -33.20193 37410 ft 453 kts 268°
2026-05-07 10:15 41.90576 -33.28564 37442 ft 452 kts 268°
2026-05-07 10:15 41.89605 -33.36890 37461 ft 450 kts 268°
2026-05-07 10:16 41.88635 -33.45159 37456 ft 450 kts 268°
2026-05-07 10:16 41.87658 -33.53437 37465 ft 449 kts 268°
2026-05-07 10:17 41.86677 -33.61698 37456 ft 448 kts 268°
2026-05-07 10:17 41.85691 -33.69949 37462 ft 447 kts 268°
2026-05-07 10:18 41.84707 -33.78133 37460 ft 446 kts 268°
2026-05-07 10:18 41.83713 -33.86343 37449 ft 445 kts 267°
2026-05-07 10:19 41.82713 -33.94548 37462 ft 445 kts 267°
2026-05-07 10:19 41.81710 -34.02737 37479 ft 444 kts 267°
2026-05-07 10:20 41.80707 -34.10877 37486 ft 444 kts 267°
2026-05-07 10:20 41.79693 -34.19050 37478 ft 443 kts 267°
2026-05-07 10:21 41.78683 -34.27141 37472 ft 442 kts 267°
2026-05-07 10:21 41.77662 -34.35278 37459 ft 442 kts 266°
2026-05-07 10:22 41.76637 -34.43391 37468 ft 441 kts 266°
2026-05-07 10:22 41.75608 -34.51496 37481 ft 441 kts 266°
2026-05-07 10:23 41.74749 -34.58223 37452 ft 441 kts 266°
2026-05-07 10:23 41.73540 -34.67637 37481 ft 439 kts 266°
2026-05-07 10:24 41.72672 -34.74359 37461 ft 440 kts 266°
2026-05-07 10:24 41.71625 -34.82419 37468 ft 439 kts 266°
2026-05-07 10:25 41.70573 -34.90476 37458 ft 439 kts 266°
2026-05-07 10:25 41.69524 -34.98465 37472 ft 438 kts 265°
2026-05-07 10:26 41.68462 -35.06501 37449 ft 438 kts 265°
2026-05-07 10:26 41.67396 -35.14526 37469 ft 437 kts 265°
2026-05-07 10:27 41.66331 -35.22502 37464 ft 437 kts 265°
2026-05-07 10:27 41.65256 -35.30510 37468 ft 437 kts 265°
2026-05-07 10:28 41.64181 -35.38470 37461 ft 437 kts 265°
2026-05-07 10:28 41.63094 -35.46476 37488 ft 436 kts 265°
2026-05-07 10:29 41.62002 -35.54481 37466 ft 437 kts 264°
2026-05-07 10:29 41.60913 -35.62417 37469 ft 436 kts 264°
2026-05-07 10:30 41.59258 -35.74393 37494 ft 436 kts 264°
2026-05-07 10:30 41.58157 -35.82308 37465 ft 436 kts 264°
2026-05-07 10:31 41.57042 -35.90286 37483 ft 435 kts 264°
2026-05-07 10:31 41.55925 -35.98233 37493 ft 435 kts 264°
2026-05-07 10:32 41.54807 -36.06142 37482 ft 435 kts 264°
2026-05-07 10:32 41.53678 -36.14095 37491 ft 435 kts 264°
2026-05-07 10:33 41.52540 -36.22060 37360 ft 439 kts 266°
2026-05-07 10:33 41.51390 -36.30094 37250 ft 441 kts 266°
2026-05-07 10:34 41.50235 -36.38096 37286 ft 442 kts 266°
2026-05-07 10:34 41.49067 -36.46145 37308 ft 442 kts 266°
2026-05-07 10:35 41.47889 -36.54219 37319 ft 442 kts 266°
2026-05-07 10:35 41.46720 -36.62201 37345 ft 442 kts 266°
2026-05-07 10:36 41.45533 -36.70259 37370 ft 442 kts 266°
2026-05-07 10:36 41.44345 -36.78286 37399 ft 441 kts 266°
2026-05-07 10:37 41.43157 -36.86272 37435 ft 441 kts 266°
2026-05-07 10:37 41.41959 -36.94288 37462 ft 441 kts 266°
2026-05-07 10:38 41.40754 -37.02308 37489 ft 440 kts 266°
2026-05-07 10:38 41.39553 -37.10259 37517 ft 440 kts 266°
2026-05-07 10:39 41.38341 -37.18243 37540 ft 439 kts 266°
2026-05-07 10:39 41.37125 -37.26222 37554 ft 439 kts 266°
2026-05-07 10:40 41.35904 -37.34191 37579 ft 439 kts 266°
2026-05-07 10:40 41.34677 -37.42156 37593 ft 438 kts 266°
2026-05-07 10:41 41.33456 -37.50051 37610 ft 438 kts 266°
2026-05-07 10:41 41.32223 -37.57978 37624 ft 437 kts 266°
2026-05-07 10:42 41.30985 -37.65903 37639 ft 437 kts 266°
2026-05-07 10:42 41.29740 -37.73834 37644 ft 437 kts 266°
2026-05-07 10:43 41.28493 -37.81742 37645 ft 437 kts 266°
2026-05-07 10:43 41.27241 -37.89648 37643 ft 437 kts 266°
2026-05-07 10:44 41.25984 -37.97542 37649 ft 437 kts 266°
2026-05-07 10:44 41.24729 -38.05391 37663 ft 436 kts 266°
2026-05-07 10:45 41.23459 -38.13293 37637 ft 437 kts 266°
2026-05-07 10:45 41.22186 -38.21182 37626 ft 437 kts 266°
2026-05-07 10:46 41.20904 -38.29088 37643 ft 437 kts 266°
2026-05-07 10:46 41.19624 -38.36945 37634 ft 437 kts 266°
2026-05-07 10:47 41.18330 -38.44855 37604 ft 438 kts 266°
2026-05-07 10:47 41.17031 -38.52755 37607 ft 438 kts 266°
2026-05-07 10:48 41.15732 -38.60621 37592 ft 438 kts 266°
2026-05-07 10:48 41.14419 -38.68535 37601 ft 439 kts 265°
2026-05-07 10:49 41.13098 -38.76461 37597 ft 439 kts 265°
2026-05-07 10:49 41.11780 -38.84333 37599 ft 439 kts 265°
2026-05-07 10:50 41.10448 -38.92251 37592 ft 440 kts 265°
2026-05-07 10:50 41.09110 -39.00174 37603 ft 440 kts 265°
2026-05-07 10:51 41.07762 -39.08118 37600 ft 441 kts 265°
2026-05-07 10:51 41.06420 -39.15993 37613 ft 441 kts 265°
2026-05-07 10:52 41.05062 -39.23926 37610 ft 441 kts 265°
2026-05-07 10:52 41.03698 -39.31861 37607 ft 442 kts 265°
2026-05-07 10:53 41.02323 -39.39820 37617 ft 442 kts 264°
2026-05-07 10:53 41.00953 -39.47723 37628 ft 442 kts 264°
2026-05-07 10:54 40.99565 -39.55687 37607 ft 443 kts 264°
2026-05-07 10:54 40.98174 -39.63639 37618 ft 443 kts 264°
2026-05-07 10:55 40.96774 -39.71602 37635 ft 444 kts 264°
2026-05-07 10:55 40.95368 -39.79567 37637 ft 444 kts 264°
2026-05-07 10:56 40.93966 -39.87480 37644 ft 444 kts 264°
2026-05-07 10:56 40.92547 -39.95451 37646 ft 445 kts 264°
2026-05-07 10:57 40.91122 -40.03422 37657 ft 445 kts 263°
2026-05-07 10:57 40.89696 -40.11362 37654 ft 446 kts 263°
2026-05-07 10:58 40.88259 -40.19334 37659 ft 446 kts 263°
2026-05-07 10:58 40.86811 -40.27330 37687 ft 446 kts 263°
2026-05-07 10:59 40.85370 -40.35255 37697 ft 446 kts 263°
2026-05-07 10:59 40.83911 -40.43239 37701 ft 447 kts 263°
2026-05-07 11:00 40.82447 -40.51224 37709 ft 447 kts 263°
2026-05-07 11:00 40.80984 -40.59171 37695 ft 448 kts 263°
2026-05-07 11:01 40.79504 -40.67172 37736 ft 447 kts 263°
2026-05-07 11:01 40.78030 -40.75109 37727 ft 448 kts 262°
2026-05-07 11:02 40.76542 -40.83088 37758 ft 448 kts 262°
2026-05-07 11:02 40.75046 -40.91079 37770 ft 448 kts 262°
2026-05-07 11:03 40.73544 -40.99068 37781 ft 448 kts 262°
2026-05-07 11:03 40.72048 -41.06993 37791 ft 448 kts 262°
2026-05-07 11:04 40.70536 -41.14968 37806 ft 448 kts 262°
2026-05-07 11:04 40.69021 -41.22929 37838 ft 447 kts 262°
2026-05-07 11:05 40.67500 -41.30883 37866 ft 447 kts 261°
2026-05-07 11:05 40.65987 -41.38769 37899 ft 447 kts 261°
2026-05-07 11:06 40.64460 -41.46698 37918 ft 446 kts 261°
2026-05-07 11:06 40.62923 -41.54644 37919 ft 446 kts 261°
2026-05-07 11:07 40.61396 -41.62510 37940 ft 446 kts 261°
2026-05-07 11:07 40.59854 -41.70419 37949 ft 445 kts 261°
2026-05-07 11:08 40.58306 -41.78326 37972 ft 445 kts 261°
2026-05-07 11:08 40.56765 -41.86168 37980 ft 445 kts 261°
2026-05-07 11:09 40.55210 -41.94052 37982 ft 445 kts 260°
2026-05-07 11:09 40.53912 -42.00606 37986 ft 445 kts 260°
2026-05-07 11:10 40.52094 -42.09757 38002 ft 444 kts 260°
2026-05-07 11:10 40.50787 -42.16304 37997 ft 444 kts 260°
2026-05-07 11:11 40.49212 -42.24175 37993 ft 444 kts 260°
2026-05-07 11:11 40.47631 -42.32038 38005 ft 444 kts 260°
2026-05-07 11:12 40.46053 -42.39859 37988 ft 444 kts 260°
2026-05-07 11:12 40.44460 -42.47726 37980 ft 444 kts 259°
2026-05-07 11:13 40.42875 -42.55524 37983 ft 444 kts 259°
2026-05-07 11:13 40.41274 -42.63368 37984 ft 445 kts 259°
2026-05-07 11:14 40.39665 -42.71224 37976 ft 445 kts 259°
2026-05-07 11:14 40.38060 -42.79030 37990 ft 445 kts 259°
2026-05-07 11:15 40.36439 -42.86880 37967 ft 445 kts 259°
2026-05-07 11:15 40.34823 -42.94680 37988 ft 445 kts 259°
2026-05-07 11:16 40.33191 -43.02532 37987 ft 445 kts 259°
2026-05-07 11:16 40.31563 -43.10329 37990 ft 445 kts 259°
2026-05-07 11:17 40.29922 -43.18163 37985 ft 445 kts 258°
2026-05-07 11:17 40.28275 -43.25998 37988 ft 446 kts 258°
2026-05-07 11:18 40.26631 -43.33786 38003 ft 445 kts 258°
2026-05-07 11:18 40.24972 -43.41620 38004 ft 446 kts 258°
2026-05-07 11:19 40.23309 -43.49442 38009 ft 446 kts 258°
2026-05-07 11:19 40.21639 -43.57270 38008 ft 446 kts 258°
2026-05-07 11:20 40.19975 -43.65039 38009 ft 446 kts 258°
2026-05-07 11:20 40.18293 -43.72866 38030 ft 446 kts 258°
2026-05-07 11:21 40.16606 -43.80684 38037 ft 446 kts 257°
2026-05-07 11:21 40.14927 -43.88439 38048 ft 446 kts 257°
2026-05-07 11:22 40.13229 -43.96258 38021 ft 446 kts 257°
2026-05-07 11:22 40.11527 -44.04063 38055 ft 446 kts 257°
2026-05-07 11:23 40.09828 -44.11824 38065 ft 446 kts 257°
2026-05-07 11:23 40.08118 -44.19612 38062 ft 446 kts 257°
2026-05-07 11:24 40.06399 -44.27414 38073 ft 446 kts 257°
2026-05-07 11:24 40.04675 -44.35210 38084 ft 446 kts 257°
2026-05-07 11:25 40.02957 -44.42951 38062 ft 447 kts 256°
2026-05-07 11:25 40.01220 -44.50748 38064 ft 447 kts 256°
2026-05-07 11:26 39.99478 -44.58541 38079 ft 447 kts 256°
2026-05-07 11:26 39.97744 -44.66276 38072 ft 447 kts 256°
2026-05-07 11:27 39.95992 -44.74060 38080 ft 447 kts 256°
2026-05-07 11:27 39.94241 -44.81810 38086 ft 447 kts 256°
2026-05-07 11:28 39.92477 -44.89596 38066 ft 448 kts 256°
2026-05-07 11:28 39.90705 -44.97386 38078 ft 448 kts 256°
2026-05-07 11:29 39.88940 -45.05120 38050 ft 448 kts 255°
2026-05-07 11:29 39.87155 -45.12915 38057 ft 449 kts 255°
2026-05-07 11:30 39.85365 -45.20705 38057 ft 449 kts 255°
2026-05-07 11:30 39.83579 -45.28450 38067 ft 449 kts 255°
2026-05-07 11:31 39.81778 -45.36236 38048 ft 450 kts 255°
2026-05-07 11:31 39.79967 -45.44038 38065 ft 450 kts 255°
2026-05-07 11:32 39.77252 -45.55685 38055 ft 450 kts 255°
2026-05-07 11:33 39.75425 -45.63486 38067 ft 450 kts 255°
2026-05-07 11:33 39.73590 -45.71297 38061 ft 451 kts 254°
2026-05-07 11:34 39.71765 -45.79041 38057 ft 451 kts 254°
2026-05-07 11:34 39.69917 -45.86857 38062 ft 452 kts 254°
2026-05-07 11:35 39.68063 -45.94667 38075 ft 452 kts 254°
2026-05-07 11:35 39.66216 -46.02427 38053 ft 453 kts 254°
2026-05-07 11:36 39.64351 -46.10234 38064 ft 453 kts 254°
2026-05-07 11:36 39.62477 -46.18050 38061 ft 453 kts 253°
2026-05-07 11:37 39.60596 -46.25875 38048 ft 454 kts 253°
2026-05-07 11:37 39.58720 -46.33646 38065 ft 454 kts 253°
2026-05-07 11:38 39.56822 -46.41487 38079 ft 454 kts 253°
2026-05-07 11:38 39.54928 -46.49284 38071 ft 455 kts 253°
2026-05-07 11:39 39.53019 -46.57119 38075 ft 455 kts 253°
2026-05-07 11:39 39.51115 -46.64905 38084 ft 455 kts 253°
2026-05-07 11:40 39.49202 -46.72705 38101 ft 456 kts 253°
2026-05-07 11:40 39.47274 -46.80538 38108 ft 456 kts 253°
2026-05-07 11:41 39.45351 -46.88328 38103 ft 456 kts 252°
2026-05-07 11:41 39.43407 -46.96174 38104 ft 457 kts 252°
2026-05-07 11:42 39.41457 -47.04023 38097 ft 457 kts 252°
2026-05-07 11:42 39.39514 -47.11812 38108 ft 457 kts 252°
2026-05-07 11:43 39.37555 -47.19647 38117 ft 458 kts 252°
2026-05-07 11:43 39.35586 -47.27491 38115 ft 458 kts 252°
2026-05-07 11:44 39.33621 -47.35297 38100 ft 459 kts 252°
2026-05-07 11:44 39.31640 -47.43142 38112 ft 459 kts 252°
2026-05-07 11:45 39.29648 -47.50999 38116 ft 459 kts 251°
2026-05-07 11:45 39.27664 -47.58807 38122 ft 459 kts 251°
2026-05-07 11:46 39.25660 -47.66662 38124 ft 460 kts 251°
2026-05-07 11:46 39.23666 -47.74459 38204 ft 458 kts 251°
2026-05-07 11:47 39.21666 -47.82253 38315 ft 456 kts 251°
2026-05-07 11:47 39.19665 -47.90023 38315 ft 455 kts 251°
2026-05-07 11:48 39.17682 -47.97701 38315 ft 454 kts 251°
2026-05-07 11:48 39.15681 -48.05424 38317 ft 453 kts 251°
2026-05-07 11:49 39.13681 -48.13120 38314 ft 452 kts 251°
2026-05-07 11:49 39.11688 -48.20765 38308 ft 451 kts 251°
2026-05-07 11:50 39.09693 -48.28393 38305 ft 451 kts 250°
2026-05-07 11:50 39.07684 -48.36056 38304 ft 451 kts 250°
2026-05-07 11:51 39.05669 -48.43714 38303 ft 450 kts 250°
2026-05-07 11:51 39.03664 -48.51312 38296 ft 450 kts 250°
2026-05-07 11:52 39.01643 -48.58946 38289 ft 450 kts 250°
2026-05-07 11:52 38.99618 -48.66572 38288 ft 450 kts 250°
2026-05-07 11:53 38.97603 -48.74140 38286 ft 450 kts 250°
2026-05-07 11:53 38.95569 -48.81757 38282 ft 450 kts 250°
2026-05-07 11:54 38.93530 -48.89367 38278 ft 450 kts 250°
2026-05-07 11:54 38.91497 -48.96933 38269 ft 450 kts 250°
2026-05-07 11:55 38.89447 -49.04537 38272 ft 450 kts 250°
2026-05-07 11:55 38.87403 -49.12102 38270 ft 450 kts 249°
2026-05-07 11:56 38.85342 -49.19703 38266 ft 450 kts 249°
2026-05-07 11:56 38.83275 -49.27305 38262 ft 451 kts 249°
2026-05-07 11:57 38.81554 -49.33616 38260 ft 451 kts 249°
2026-05-07 11:57 38.79474 -49.41224 38260 ft 451 kts 249°
2026-05-07 11:58 38.77399 -49.48792 38254 ft 452 kts 249°
2026-05-07 11:58 38.75305 -49.56407 38249 ft 452 kts 249°
2026-05-07 11:59 38.73206 -49.64018 38259 ft 454 kts 249°
2026-05-07 11:59 38.71104 -49.71615 38244 ft 455 kts 249°
2026-05-07 12:00 38.68981 -49.79267 38233 ft 455 kts 249°
2026-05-07 12:00 38.66869 -49.86857 38238 ft 455 kts 249°
2026-05-07 12:01 38.64735 -49.94505 38244 ft 456 kts 249°
2026-05-07 12:01 38.62596 -50.02147 38235 ft 456 kts 249°
2026-05-07 12:02 38.60450 -50.09792 38231 ft 456 kts 249°
2026-05-07 12:02 38.58310 -50.17394 38240 ft 458 kts 249°
2026-05-07 12:03 38.56147 -50.25055 38219 ft 458 kts 249°
2026-05-07 12:03 38.53978 -50.32715 38215 ft 458 kts 249°
2026-05-07 12:04 38.51805 -50.40371 38212 ft 457 kts 249°
2026-05-07 12:04 38.49640 -50.47972 38208 ft 457 kts 249°
2026-05-07 12:05 38.47464 -50.55588 38208 ft 456 kts 249°
2026-05-07 12:05 38.45283 -50.63204 38202 ft 456 kts 249°
2026-05-07 12:06 38.43109 -50.70772 38200 ft 456 kts 248°
2026-05-07 12:06 38.40920 -50.78371 38198 ft 456 kts 248°
2026-05-07 12:07 38.38724 -50.85971 38193 ft 456 kts 248°
2026-05-07 12:07 38.36541 -50.93506 38186 ft 456 kts 248°
2026-05-07 12:08 38.34339 -51.01087 38185 ft 456 kts 248°
2026-05-07 12:08 38.32132 -51.08659 38185 ft 456 kts 248°
2026-05-07 12:09 38.29917 -51.16242 38183 ft 456 kts 248°
2026-05-07 12:09 38.27714 -51.23761 38179 ft 456 kts 248°
2026-05-07 12:10 38.25485 -51.31346 38178 ft 456 kts 248°
2026-05-07 12:10 38.23265 -51.38883 38171 ft 457 kts 248°
2026-05-07 12:11 38.21024 -51.46466 38173 ft 457 kts 248°
2026-05-07 12:11 38.18780 -51.54040 38166 ft 457 kts 248°
2026-05-07 12:12 38.16544 -51.61566 38166 ft 457 kts 248°
2026-05-07 12:12 38.14286 -51.69144 38162 ft 457 kts 248°
2026-05-07 12:13 38.12024 -51.76716 38158 ft 457 kts 248°
2026-05-07 12:13 38.09775 -51.84224 38154 ft 457 kts 248°
2026-05-07 12:14 38.07506 -51.91778 38157 ft 457 kts 248°
2026-05-07 12:14 38.05231 -51.99330 38142 ft 458 kts 248°
2026-05-07 12:15 38.02968 -52.06821 38139 ft 458 kts 248°
2026-05-07 12:15 38.00680 -52.14376 38141 ft 458 kts 247°
2026-05-07 12:16 37.98386 -52.21929 38137 ft 458 kts 247°
2026-05-07 12:16 37.96103 -52.29425 38124 ft 458 kts 247°
2026-05-07 12:17 37.93798 -52.36975 38124 ft 458 kts 247°
2026-05-07 12:17 37.91504 -52.44466 38128 ft 458 kts 247°
2026-05-07 12:18 37.89190 -52.52004 38117 ft 458 kts 247°
2026-05-07 12:18 37.86869 -52.59541 38119 ft 458 kts 247°
2026-05-07 12:19 37.84549 -52.67060 38113 ft 458 kts 247°
2026-05-07 12:19 37.82235 -52.74535 38109 ft 459 kts 247°
2026-05-07 12:20 37.79904 -52.82046 38109 ft 459 kts 247°
2026-05-07 12:20 37.77565 -52.89564 38103 ft 459 kts 247°
2026-05-07 12:21 37.75217 -52.97088 38099 ft 460 kts 246°
2026-05-07 12:21 37.72877 -53.04566 38094 ft 460 kts 246°
2026-05-07 12:22 37.70515 -53.12096 38093 ft 460 kts 246°
2026-05-07 12:22 37.68144 -53.19639 38088 ft 461 kts 246°
2026-05-07 12:23 37.65781 -53.27130 38088 ft 461 kts 246°
2026-05-07 12:23 37.63399 -53.34664 38085 ft 462 kts 246°
2026-05-07 12:24 37.61019 -53.42172 38084 ft 463 kts 246°
2026-05-07 12:24 37.58620 -53.49720 38075 ft 463 kts 246°
2026-05-07 12:25 37.56211 -53.57280 38073 ft 464 kts 246°
2026-05-07 12:25 37.53812 -53.64786 38074 ft 465 kts 246°
2026-05-07 12:26 37.51387 -53.72354 38065 ft 465 kts 246°
2026-05-07 12:26 37.48953 -53.79932 38064 ft 466 kts 246°
2026-05-07 12:27 37.46510 -53.87519 38061 ft 467 kts 246°
2026-05-07 12:27 37.44076 -53.95056 38060 ft 468 kts 246°
2026-05-07 12:28 37.41617 -54.02653 38052 ft 469 kts 246°
2026-05-07 12:28 37.39143 -54.10272 38048 ft 470 kts 246°
2026-05-07 12:29 37.36675 -54.17855 38048 ft 471 kts 246°
2026-05-07 12:29 37.34179 -54.25502 38045 ft 472 kts 246°
2026-05-07 12:30 37.31689 -54.33111 38045 ft 474 kts 246°
2026-05-07 12:30 37.29169 -54.40796 38040 ft 475 kts 247°
2026-05-07 12:31 37.26640 -54.48486 38036 ft 477 kts 247°
2026-05-07 12:31 37.24095 -54.56201 38034 ft 479 kts 247°
2026-05-07 12:32 37.21554 -54.63887 38032 ft 480 kts 248°
2026-05-07 12:32 37.18980 -54.71652 38033 ft 482 kts 248°
2026-05-07 12:33 37.15106 -54.83299 38027 ft 485 kts 249°
2026-05-07 12:33 37.12494 -54.91124 38029 ft 487 kts 249°
2026-05-07 12:34 37.09886 -54.98919 38023 ft 488 kts 249°
2026-05-07 12:34 37.07247 -55.06782 38028 ft 490 kts 249°
2026-05-07 12:35 37.04589 -55.14684 38023 ft 492 kts 249°
2026-05-07 12:35 37.01933 -55.22558 38019 ft 493 kts 249°
2026-05-07 12:36 36.99250 -55.30491 38021 ft 495 kts 249°
2026-05-07 12:36 36.96575 -55.38380 38018 ft 496 kts 250°
2026-05-07 12:37 36.93866 -55.46345 38017 ft 497 kts 250°
2026-05-07 12:37 36.91148 -55.54320 38015 ft 499 kts 250°
2026-05-07 12:38 36.88437 -55.62250 38012 ft 500 kts 250°
2026-05-07 12:38 36.85696 -55.70247 38018 ft 501 kts 250°
2026-05-07 12:39 36.82933 -55.78285 38018 ft 502 kts 250°
2026-05-07 12:39 36.80178 -55.86281 38002 ft 504 kts 250°
2026-05-07 12:40 36.77400 -55.94323 38012 ft 505 kts 250°
2026-05-07 12:40 36.74629 -56.02321 38010 ft 506 kts 251°
2026-05-07 12:41 36.71827 -56.10387 37995 ft 507 kts 251°
2026-05-07 12:41 36.69014 -56.18462 38008 ft 508 kts 251°
2026-05-07 12:42 36.66190 -56.26548 38005 ft 509 kts 251°
2026-05-07 12:42 36.63374 -56.34592 37997 ft 510 kts 251°
2026-05-07 12:43 36.60531 -56.42691 38002 ft 510 kts 251°
2026-05-07 12:43 36.57674 -56.50807 37998 ft 511 kts 251°
2026-05-07 12:44 36.54824 -56.58880 38000 ft 512 kts 251°
2026-05-07 12:44 36.52437 -56.65626 37999 ft 512 kts 251°
2026-05-07 12:45 36.49559 -56.73742 38000 ft 512 kts 251°
2026-05-07 12:45 36.46676 -56.81847 37999 ft 513 kts 252°
2026-05-07 12:46 36.43799 -56.89914 38002 ft 513 kts 252°
2026-05-07 12:46 36.40898 -56.98029 37996 ft 513 kts 252°
2026-05-07 12:47 36.37996 -57.06125 38000 ft 512 kts 252°
2026-05-07 12:47 36.35113 -57.14147 38001 ft 512 kts 252°
2026-05-07 12:48 36.32204 -57.22220 37998 ft 511 kts 252°
2026-05-07 12:48 36.29295 -57.30271 38003 ft 511 kts 252°
2026-05-07 12:49 36.26398 -57.38270 38002 ft 510 kts 252°
2026-05-07 12:49 36.23484 -57.46296 38001 ft 510 kts 252°
2026-05-07 12:50 36.20560 -57.54325 38001 ft 509 kts 252°
2026-05-07 12:50 36.17662 -57.62266 38003 ft 508 kts 253°
2026-05-07 12:51 36.14745 -57.70237 38009 ft 508 kts 253°
2026-05-07 12:51 36.11822 -57.78203 38011 ft 507 kts 253°
2026-05-07 12:52 36.08901 -57.86147 38011 ft 506 kts 253°
2026-05-07 12:52 36.05997 -57.94021 38016 ft 505 kts 253°
2026-05-07 12:53 36.03075 -58.01926 38013 ft 505 kts 253°
2026-05-07 12:53 36.00151 -58.09815 38017 ft 504 kts 254°
2026-05-07 12:54 35.97231 -58.17676 38012 ft 503 kts 254°
2026-05-07 12:54 35.94326 -58.25476 38015 ft 503 kts 254°
2026-05-07 12:55 35.91396 -58.33323 38018 ft 502 kts 254°
2026-05-07 12:55 35.88468 -58.41147 38023 ft 502 kts 254°
2026-05-07 12:56 35.85537 -58.48959 38025 ft 501 kts 254°
2026-05-07 12:56 35.82602 -58.56763 38032 ft 501 kts 254°
2026-05-07 12:57 35.79682 -58.64506 38028 ft 501 kts 254°
2026-05-07 12:57 35.76730 -58.72316 38030 ft 501 kts 254°
2026-05-07 12:58 35.73797 -58.80057 38038 ft 501 kts 254°
2026-05-07 12:58 35.70844 -58.87831 38041 ft 501 kts 254°
2026-05-07 12:59 35.67896 -58.95573 38043 ft 501 kts 254°
2026-05-07 12:59 35.64932 -59.03338 38044 ft 501 kts 254°
2026-05-07 13:00 35.61967 -59.11090 38046 ft 501 kts 254°
2026-05-07 13:00 35.59015 -59.18787 38048 ft 501 kts 254°
2026-05-07 13:01 35.56032 -59.26546 38050 ft 501 kts 254°
2026-05-07 13:01 35.53070 -59.34232 38055 ft 501 kts 254°
2026-05-07 13:02 35.50076 -59.41981 38059 ft 501 kts 254°
2026-05-07 13:02 35.47082 -59.49713 38059 ft 501 kts 254°
2026-05-07 13:03 35.44103 -59.57388 38063 ft 501 kts 254°
2026-05-07 13:03 35.41092 -59.65127 38062 ft 502 kts 254°
2026-05-07 13:04 35.38078 -59.72857 38071 ft 502 kts 254°
2026-05-07 13:04 35.35072 -59.80546 38075 ft 502 kts 254°
2026-05-07 13:05 35.32049 -59.88258 38078 ft 502 kts 254°
2026-05-07 13:05 35.29020 -59.95971 38072 ft 502 kts 254°
2026-05-07 13:06 35.26000 -60.03642 38078 ft 502 kts 254°
2026-05-07 13:06 35.22961 -60.11343 38083 ft 502 kts 254°
2026-05-07 13:07 35.19932 -60.19000 38086 ft 502 kts 254°
2026-05-07 13:07 35.16884 -60.26686 38089 ft 502 kts 254°
2026-05-07 13:08 35.13837 -60.34355 38088 ft 501 kts 254°
2026-05-07 13:08 35.10783 -60.42021 38089 ft 501 kts 254°
2026-05-07 13:09 35.07748 -60.49622 38094 ft 501 kts 254°
2026-05-07 13:09 35.04690 -60.57262 38097 ft 501 kts 254°
2026-05-07 13:10 35.01624 -60.64907 38099 ft 500 kts 254°
2026-05-07 13:10 34.98562 -60.72521 38104 ft 500 kts 254°
2026-05-07 13:11 34.95494 -60.80135 38102 ft 500 kts 254°
2026-05-07 13:11 34.92422 -60.87742 38104 ft 499 kts 254°
2026-05-07 13:12 34.89367 -60.95288 38109 ft 499 kts 254°
2026-05-07 13:12 34.86291 -61.02870 38110 ft 499 kts 254°
2026-05-07 13:13 34.83208 -61.10449 38114 ft 498 kts 254°
2026-05-07 13:13 34.80147 -61.17959 38112 ft 498 kts 253°
2026-05-07 13:14 34.77059 -61.25519 38109 ft 498 kts 253°
2026-05-07 13:14 34.73983 -61.33031 38113 ft 498 kts 253°
2026-05-07 13:15 34.70889 -61.40572 38116 ft 498 kts 253°
2026-05-07 13:15 34.67784 -61.48123 38109 ft 497 kts 253°
2026-05-07 13:16 34.64701 -61.55603 38117 ft 497 kts 253°
2026-05-07 13:16 34.61594 -61.63123 38120 ft 497 kts 253°
2026-05-07 13:17 34.58500 -61.70595 38122 ft 497 kts 253°
2026-05-07 13:17 34.55388 -61.78095 38123 ft 497 kts 253°
2026-05-07 13:18 34.52271 -61.85592 38119 ft 496 kts 253°
2026-05-07 13:18 34.49170 -61.93033 38127 ft 496 kts 253°
2026-05-07 13:19 34.46054 -62.00493 38138 ft 496 kts 253°
2026-05-07 13:19 34.42931 -62.07958 38136 ft 495 kts 253°
2026-05-07 13:20 34.39597 -62.15261 38128 ft 505 kts 246°
2026-05-07 13:20 34.35343 -62.22128 38130 ft 511 kts 242°
2026-05-07 13:21 34.30946 -62.28941 38130 ft 511 kts 242°
2026-05-07 13:21 34.26607 -62.35709 38129 ft 510 kts 243°
2026-05-07 13:22 34.22306 -62.42471 38128 ft 510 kts 243°
2026-05-07 13:22 34.17990 -62.49266 38131 ft 509 kts 243°
2026-05-07 13:23 34.13661 -62.56070 38134 ft 509 kts 243°
2026-05-07 13:23 34.09338 -62.62846 38138 ft 509 kts 243°
2026-05-07 13:24 34.05039 -62.69570 38141 ft 509 kts 243°
2026-05-07 13:24 34.00706 -62.76334 38136 ft 509 kts 243°
2026-05-07 13:25 33.96370 -62.83090 38143 ft 508 kts 243°
2026-05-07 13:25 33.92044 -62.89819 38138 ft 508 kts 243°
2026-05-07 13:26 33.87730 -62.96516 38142 ft 508 kts 243°
2026-05-07 13:26 33.83393 -63.03238 38148 ft 508 kts 243°
2026-05-07 13:27 33.79070 -63.09925 38139 ft 508 kts 243°
2026-05-07 13:27 33.74732 -63.16622 38142 ft 508 kts 243°
2026-05-07 13:28 33.70383 -63.23324 38141 ft 508 kts 243°
2026-05-07 13:28 33.66032 -63.30017 38142 ft 508 kts 243°
2026-05-07 13:29 33.61679 -63.36699 38148 ft 508 kts 243°
2026-05-07 13:29 33.57354 -63.43329 38145 ft 508 kts 243°
2026-05-07 13:30 33.52987 -63.50009 38147 ft 508 kts 243°
2026-05-07 13:30 33.48622 -63.56675 38149 ft 508 kts 243°
2026-05-07 13:31 33.44273 -63.63303 38146 ft 508 kts 243°
2026-05-07 13:31 33.39899 -63.69957 38147 ft 508 kts 242°
2026-05-07 13:32 33.35529 -63.76595 38150 ft 508 kts 242°
2026-05-07 13:32 33.31166 -63.83209 38152 ft 508 kts 242°
2026-05-07 13:33 33.27520 -63.88726 38151 ft 508 kts 242°
2026-05-07 13:33 33.23124 -63.95368 38146 ft 508 kts 242°
2026-05-07 13:34 33.16551 -64.05277 38153 ft 509 kts 242°
2026-05-07 13:35 33.12141 -64.11911 38157 ft 509 kts 242°
2026-05-07 13:35 33.07734 -64.18528 38154 ft 509 kts 242°
2026-05-07 13:36 33.03323 -64.25139 38158 ft 509 kts 242°
2026-05-07 13:36 32.98935 -64.31703 38149 ft 509 kts 242°
2026-05-07 13:37 32.94499 -64.38328 38154 ft 509 kts 242°
2026-05-07 13:37 32.90103 -64.44881 38157 ft 509 kts 242°
2026-05-07 13:38 32.85681 -64.51462 38152 ft 509 kts 242°
2026-05-07 13:38 32.81245 -64.58050 38153 ft 509 kts 242°
2026-05-07 13:39 32.76804 -64.64636 38154 ft 509 kts 242°
2026-05-07 13:39 32.72389 -64.71171 38154 ft 509 kts 242°
2026-05-07 13:40 32.67941 -64.77743 38149 ft 509 kts 242°
2026-05-07 13:40 32.63493 -64.84304 38153 ft 509 kts 242°
2026-05-07 13:41 32.59068 -64.90819 38152 ft 509 kts 242°
2026-05-07 13:41 32.54614 -64.97366 38156 ft 509 kts 242°
2026-05-07 13:42 32.50164 -65.03894 38159 ft 509 kts 242°
2026-05-07 13:42 32.45727 -65.10393 38160 ft 509 kts 242°
2026-05-07 13:43 32.41271 -65.16909 38159 ft 509 kts 241°
2026-05-07 13:43 32.36806 -65.23425 38161 ft 509 kts 241°
2026-05-07 13:44 32.32340 -65.29932 38158 ft 508 kts 241°
2026-05-07 13:44 32.27898 -65.36393 38158 ft 508 kts 241°
2026-05-07 13:45 32.23435 -65.42873 38157 ft 507 kts 241°
2026-05-07 13:45 32.18980 -65.49330 38159 ft 506 kts 241°
2026-05-07 13:46 32.14549 -65.55742 38157 ft 506 kts 241°
2026-05-07 13:46 32.10102 -65.62167 38160 ft 505 kts 241°
2026-05-07 13:47 32.05656 -65.68579 38154 ft 504 kts 241°
2026-05-07 13:47 32.01241 -65.74935 38155 ft 504 kts 241°
2026-05-07 13:48 31.96795 -65.81326 38160 ft 503 kts 241°
2026-05-07 13:48 31.92351 -65.87702 38158 ft 503 kts 241°
2026-05-07 13:49 31.87904 -65.94073 38157 ft 503 kts 240°
2026-05-07 13:49 31.83482 -66.00397 38160 ft 503 kts 240°
2026-05-07 13:50 31.79030 -66.06753 38166 ft 503 kts 240°
2026-05-07 13:50 31.74574 -66.13104 38165 ft 503 kts 240°
2026-05-07 13:51 31.70116 -66.19448 38163 ft 503 kts 240°
2026-05-07 13:51 31.65681 -66.25748 38158 ft 503 kts 240°
2026-05-07 13:52 31.61221 -66.32072 38168 ft 502 kts 240°
2026-05-07 13:52 31.56754 -66.38396 38166 ft 502 kts 240°
2026-05-07 13:53 31.52301 -66.44691 38159 ft 501 kts 240°
2026-05-07 13:53 31.47868 -66.50946 38162 ft 500 kts 240°
2026-05-07 13:54 31.43417 -66.57218 38166 ft 500 kts 240°
2026-05-07 13:54 31.38960 -66.63486 38160 ft 499 kts 240°
2026-05-07 13:55 31.34540 -66.69693 38164 ft 499 kts 240°
2026-05-07 13:55 31.30098 -66.75922 38167 ft 498 kts 240°
2026-05-07 13:56 31.25647 -66.82153 38165 ft 498 kts 240°
2026-05-07 13:56 31.21195 -66.88375 38167 ft 498 kts 240°
2026-05-07 13:57 31.16773 -66.94546 38171 ft 498 kts 240°
2026-05-07 13:57 31.12312 -67.00759 38175 ft 498 kts 240°
2026-05-07 13:58 31.07854 -67.06961 38168 ft 498 kts 239°
2026-05-07 13:58 31.03421 -67.13116 38169 ft 498 kts 239°
2026-05-07 13:59 30.98957 -67.19304 38169 ft 498 kts 239°
2026-05-07 13:59 30.94494 -67.25483 38162 ft 498 kts 239°
2026-05-07 14:00 30.90024 -67.31660 38162 ft 498 kts 239°
2026-05-07 14:00 30.85574 -67.37800 38169 ft 498 kts 239°
2026-05-07 14:01 30.81102 -67.43962 38166 ft 498 kts 239°
2026-05-07 14:01 30.76619 -67.50129 38157 ft 498 kts 239°
2026-05-07 14:02 30.72148 -67.56271 38175 ft 498 kts 239°
2026-05-07 14:02 30.67907 -67.62510 38169 ft 488 kts 247°
2026-05-07 14:03 30.64387 -67.69196 38170 ft 484 kts 248°
2026-05-07 14:03 30.60920 -67.75906 38165 ft 483 kts 248°
2026-05-07 14:04 30.57457 -67.82540 38162 ft 483 kts 248°
2026-05-07 14:04 30.53944 -67.89205 38166 ft 483 kts 248°
2026-05-07 14:05 30.50425 -67.95855 38164 ft 483 kts 248°
2026-05-07 14:05 30.46929 -68.02451 38161 ft 482 kts 247°
2026-05-07 14:06 30.43413 -68.09077 38164 ft 482 kts 247°
2026-05-07 14:06 30.39901 -68.15686 38164 ft 481 kts 247°
2026-05-07 14:07 30.36403 -68.22259 38160 ft 481 kts 247°
2026-05-07 14:07 30.32884 -68.28858 38160 ft 481 kts 246°
2026-05-07 14:08 30.29364 -68.35449 38158 ft 480 kts 246°
2026-05-07 14:08 30.25865 -68.41991 38158 ft 480 kts 246°
2026-05-07 14:09 30.22344 -68.48562 38153 ft 479 kts 246°
2026-05-07 14:09 30.18829 -68.55113 38159 ft 479 kts 246°
2026-05-07 14:10 30.15328 -68.61626 38158 ft 479 kts 246°
2026-05-07 14:10 30.11813 -68.68154 38147 ft 479 kts 245°
2026-05-07 14:11 30.08291 -68.74685 38155 ft 479 kts 245°
2026-05-07 14:11 30.04767 -68.81209 38154 ft 479 kts 245°
2026-05-07 14:12 30.01234 -68.87738 38152 ft 479 kts 245°
2026-05-07 14:12 29.97722 -68.94217 38155 ft 479 kts 245°
2026-05-07 14:13 29.94183 -69.00738 38153 ft 479 kts 245°
2026-05-07 14:13 29.90666 -69.07206 38154 ft 479 kts 245°
2026-05-07 14:14 29.87119 -69.13719 38155 ft 479 kts 245°
2026-05-07 14:14 29.83575 -69.20216 38152 ft 479 kts 244°
2026-05-07 14:15 29.80022 -69.26719 38150 ft 479 kts 244°
2026-05-07 14:15 29.76468 -69.33215 38150 ft 479 kts 244°
2026-05-07 14:16 29.72934 -69.39663 38148 ft 479 kts 244°
2026-05-07 14:16 29.69371 -69.46153 38152 ft 480 kts 244°
2026-05-07 14:17 29.65791 -69.52664 38145 ft 480 kts 244°
2026-05-07 14:17 29.62240 -69.59112 38152 ft 480 kts 244°
2026-05-07 14:18 29.58651 -69.65619 38149 ft 481 kts 244°
2026-05-07 14:18 29.55084 -69.72074 38145 ft 481 kts 244°
2026-05-07 14:19 29.51495 -69.78562 38148 ft 481 kts 244°
2026-05-07 14:19 29.48498 -69.83969 38142 ft 481 kts 244°
2026-05-07 14:20 29.44307 -69.91520 38144 ft 482 kts 244°
2026-05-07 14:20 29.41287 -69.96953 38142 ft 482 kts 244°
2026-05-07 14:21 29.37697 -70.03400 38142 ft 482 kts 244°
2026-05-07 14:21 29.34073 -70.09900 38143 ft 482 kts 244°
2026-05-07 14:22 29.29868 -70.17429 38140 ft 482 kts 244°
2026-05-07 14:22 29.26857 -70.22811 38136 ft 482 kts 243°
2026-05-07 14:23 29.23233 -70.29279 38136 ft 482 kts 243°
2026-05-07 14:23 29.19598 -70.35758 38138 ft 483 kts 243°
2026-05-07 14:24 29.15963 -70.42226 38139 ft 483 kts 243°
2026-05-07 14:24 29.12326 -70.48688 38135 ft 483 kts 243°
2026-05-07 14:25 29.08707 -70.55108 38133 ft 483 kts 243°
2026-05-07 14:25 29.05058 -70.61571 38127 ft 483 kts 243°
2026-05-07 14:26 29.01414 -70.68017 38125 ft 483 kts 243°
2026-05-07 14:26 28.97757 -70.74474 38141 ft 483 kts 243°
2026-05-07 14:27 28.94100 -70.80922 38136 ft 483 kts 243°
2026-05-07 14:27 28.90456 -70.87337 38134 ft 484 kts 243°
2026-05-07 14:28 28.86786 -70.93789 38128 ft 484 kts 242°
2026-05-07 14:28 28.83142 -71.00240 38127 ft 483 kts 243°
2026-05-07 14:29 28.79587 -71.06705 38128 ft 482 kts 243°
2026-05-07 14:29 28.76035 -71.13184 38120 ft 482 kts 243°
2026-05-07 14:30 28.72471 -71.19650 38125 ft 481 kts 243°
2026-05-07 14:30 28.68900 -71.26105 38124 ft 481 kts 243°
2026-05-07 14:31 28.65346 -71.32516 38121 ft 480 kts 243°
2026-05-07 14:31 28.61772 -71.38955 38126 ft 480 kts 243°
2026-05-07 14:32 28.58220 -71.45346 38122 ft 479 kts 243°
2026-05-07 14:32 28.54652 -71.51755 38123 ft 479 kts 243°
2026-05-07 14:33 28.51083 -71.58157 38120 ft 479 kts 243°
2026-05-07 14:33 28.47514 -71.64549 38117 ft 478 kts 243°
2026-05-07 14:34 28.43945 -71.70932 38117 ft 478 kts 243°
2026-05-07 14:34 28.40375 -71.77307 38120 ft 478 kts 243°
2026-05-07 14:35 28.36820 -71.83647 38116 ft 478 kts 243°
2026-05-07 14:35 28.33239 -71.90024 38117 ft 478 kts 243°
2026-05-07 14:36 28.29630 -71.96371 38115 ft 478 kts 242°
2026-05-07 14:36 28.25988 -72.02633 38116 ft 478 kts 242°
2026-05-07 14:37 28.22317 -72.08928 38114 ft 478 kts 242°
2026-05-07 14:37 28.16823 -72.18368 38113 ft 478 kts 242°
2026-05-07 14:38 28.13157 -72.24664 38113 ft 478 kts 242°
2026-05-07 14:38 28.09512 -72.30915 38114 ft 478 kts 242°
2026-05-07 14:39 28.05845 -72.37193 38110 ft 477 kts 242°
2026-05-07 14:39 28.02178 -72.43463 38113 ft 477 kts 242°
2026-05-07 14:40 27.98504 -72.49733 38109 ft 477 kts 242°
2026-05-07 14:40 27.94846 -72.55970 38114 ft 477 kts 241°
2026-05-07 14:41 27.91158 -72.62248 38108 ft 478 kts 241°
2026-05-07 14:41 27.87490 -72.68483 38112 ft 478 kts 241°
2026-05-07 14:42 27.83805 -72.74736 38108 ft 478 kts 241°
2026-05-07 14:42 27.80116 -72.80990 38106 ft 478 kts 241°
2026-05-07 14:43 27.76444 -72.87204 38111 ft 478 kts 241°
2026-05-07 14:43 27.72743 -72.93458 38112 ft 478 kts 241°
2026-05-07 14:44 27.69037 -72.99712 38099 ft 479 kts 241°
2026-05-07 14:44 27.65352 -73.05921 38100 ft 479 kts 241°
2026-05-07 14:45 27.61640 -73.12168 38113 ft 479 kts 241°
2026-05-07 14:45 27.57924 -73.18412 38110 ft 479 kts 241°
2026-05-07 14:46 27.54204 -73.24653 38105 ft 480 kts 241°
2026-05-07 14:46 27.50480 -73.30893 38106 ft 480 kts 241°
2026-05-07 14:47 27.46744 -73.37144 38102 ft 480 kts 241°
2026-05-07 14:47 27.43032 -73.43347 38105 ft 481 kts 241°
2026-05-07 14:48 27.39283 -73.49601 38100 ft 481 kts 241°
2026-05-07 14:48 27.35548 -73.55824 38103 ft 482 kts 241°
2026-05-07 14:49 27.31786 -73.62082 38100 ft 482 kts 242°
2026-05-07 14:49 27.28013 -73.68350 38104 ft 483 kts 242°
2026-05-07 14:50 27.24266 -73.74566 38099 ft 483 kts 242°
2026-05-07 14:50 27.20485 -73.80830 38100 ft 483 kts 242°
2026-05-07 14:51 27.16716 -73.87066 38103 ft 482 kts 242°
2026-05-07 14:51 27.12959 -73.93272 38105 ft 482 kts 242°
2026-05-07 14:52 27.09186 -73.99497 38099 ft 481 kts 242°
2026-05-07 14:52 27.05420 -74.05701 38099 ft 480 kts 242°
2026-05-07 14:53 27.01658 -74.11890 38100 ft 480 kts 242°
2026-05-07 14:53 26.97893 -74.18077 38103 ft 479 kts 242°
2026-05-07 14:54 26.94153 -74.24215 38099 ft 478 kts 241°
2026-05-07 14:54 26.90911 -74.30636 38109 ft 469 kts 251°
2026-05-07 14:55 26.88686 -74.37449 38111 ft 463 kts 257°
2026-05-07 14:55 26.86771 -74.44294 38103 ft 463 kts 257°
2026-05-07 14:56 26.84832 -74.51193 38097 ft 463 kts 257°
2026-05-07 14:56 26.82874 -74.58069 38102 ft 464 kts 257°
2026-05-07 14:57 26.80897 -74.64960 38104 ft 464 kts 257°
2026-05-07 14:57 26.78930 -74.71796 38102 ft 464 kts 257°
2026-05-07 14:58 26.76944 -74.78683 38101 ft 464 kts 257°
2026-05-07 14:58 26.74955 -74.85570 38100 ft 464 kts 256°
2026-05-07 14:59 26.72972 -74.92423 38103 ft 464 kts 256°
2026-05-07 14:59 26.70977 -74.99306 38105 ft 465 kts 256°
2026-05-07 15:00 26.68984 -75.06165 38104 ft 466 kts 256°
2026-05-07 15:00 26.66976 -75.13065 38102 ft 467 kts 256°
2026-05-07 15:01 26.64959 -75.19982 38103 ft 468 kts 256°
2026-05-07 15:01 26.62934 -75.26911 38104 ft 469 kts 256°
2026-05-07 15:02 26.60907 -75.33829 38102 ft 470 kts 256°
2026-05-07 15:02 26.58864 -75.40794 38099 ft 471 kts 256°
2026-05-07 15:03 26.56826 -75.47725 38104 ft 472 kts 256°
2026-05-07 15:03 26.54774 -75.54686 38100 ft 472 kts 256°
2026-05-07 15:04 26.52719 -75.61649 38103 ft 472 kts 256°
2026-05-07 15:04 26.50659 -75.68612 38104 ft 472 kts 256°
2026-05-07 15:05 26.48603 -75.75548 38106 ft 471 kts 256°
2026-05-07 15:05 26.46539 -75.82497 38100 ft 471 kts 256°
2026-05-07 15:06 26.44821 -75.88273 38105 ft 471 kts 256°
2026-05-07 15:06 26.42753 -75.95209 38103 ft 470 kts 256°
2026-05-07 15:07 26.40681 -76.02148 38104 ft 470 kts 256°
2026-05-07 15:07 26.38621 -76.09032 38103 ft 470 kts 255°
2026-05-07 15:08 26.36545 -76.15957 38103 ft 470 kts 255°
2026-05-07 15:08 26.34463 -76.22886 38103 ft 471 kts 255°
2026-05-07 15:09 26.32380 -76.29809 38103 ft 471 kts 255°
2026-05-07 15:09 26.30290 -76.36738 38102 ft 472 kts 255°
2026-05-07 15:10 26.28206 -76.43632 38102 ft 472 kts 255°
2026-05-07 15:10 26.26102 -76.50584 38106 ft 473 kts 255°
2026-05-07 15:11 26.24005 -76.57497 38102 ft 473 kts 255°
2026-05-07 15:11 26.21885 -76.64470 38103 ft 474 kts 255°
2026-05-07 15:12 26.19778 -76.71388 38103 ft 474 kts 255°
2026-05-07 15:12 26.17652 -76.78355 38102 ft 475 kts 255°
2026-05-07 15:13 26.15518 -76.85335 38105 ft 475 kts 255°
2026-05-07 15:13 26.13381 -76.92313 38102 ft 476 kts 255°
2026-05-07 15:14 26.11248 -76.99260 38101 ft 476 kts 255°
2026-05-07 15:14 26.09104 -77.06234 38104 ft 476 kts 255°
2026-05-07 15:15 26.06954 -77.13211 38100 ft 477 kts 255°
2026-05-07 15:15 26.04813 -77.20148 38102 ft 477 kts 254°
2026-05-07 15:16 26.02643 -77.27162 38103 ft 477 kts 254°
2026-05-07 15:16 26.00498 -77.34083 38099 ft 477 kts 254°
2026-05-07 15:17 25.98330 -77.41068 38098 ft 476 kts 254°
2026-05-07 15:17 25.96164 -77.48029 38098 ft 476 kts 254°
2026-05-07 15:18 25.94010 -77.54941 38098 ft 476 kts 254°
2026-05-07 15:18 25.91838 -77.61898 38099 ft 476 kts 254°
2026-05-07 15:19 25.89665 -77.68842 38098 ft 475 kts 254°
2026-05-07 15:19 25.87503 -77.75739 38101 ft 475 kts 254°
2026-05-07 15:20 25.85324 -77.82678 38104 ft 475 kts 253°
2026-05-07 15:20 25.83143 -77.89611 38103 ft 475 kts 253°
2026-05-07 15:21 25.80960 -77.96540 38100 ft 475 kts 253°
2026-05-07 15:21 25.78789 -78.03413 38098 ft 474 kts 253°
2026-05-07 15:22 25.76604 -78.10319 38102 ft 474 kts 253°
2026-05-07 15:22 25.74415 -78.17225 38102 ft 474 kts 253°
2026-05-07 15:23 25.72217 -78.24146 38099 ft 474 kts 253°
2026-05-07 15:23 25.70037 -78.30998 38099 ft 474 kts 253°
2026-05-07 15:24 25.67841 -78.37889 38099 ft 474 kts 253°
2026-05-07 15:24 25.65640 -78.44782 38096 ft 473 kts 253°
2026-05-07 15:25 25.63450 -78.51627 38098 ft 473 kts 253°
2026-05-07 15:25 25.61246 -78.58504 38096 ft 473 kts 253°
2026-05-07 15:26 25.59038 -78.65382 38095 ft 473 kts 253°
2026-05-07 15:26 25.56826 -78.72256 38098 ft 473 kts 253°
2026-05-07 15:27 25.54614 -78.79123 38094 ft 473 kts 253°
2026-05-07 15:27 25.52410 -78.85948 38092 ft 473 kts 253°
2026-05-07 15:28 25.50192 -78.92807 38092 ft 473 kts 253°
2026-05-07 15:28 25.47968 -78.99671 38093 ft 473 kts 253°
2026-05-07 15:29 25.45756 -79.06487 38091 ft 473 kts 253°
2026-05-07 15:29 25.43523 -79.13353 38088 ft 473 kts 253°
2026-05-07 15:30 25.41293 -79.20200 38089 ft 473 kts 253°
2026-05-07 15:30 25.39074 -79.26999 38090 ft 473 kts 253°
2026-05-07 15:31 25.36838 -79.33840 38086 ft 473 kts 253°
2026-05-07 15:31 25.34599 -79.40674 38089 ft 473 kts 253°
2026-05-07 15:32 25.32351 -79.47526 38088 ft 473 kts 253°
2026-05-07 15:32 25.30119 -79.54320 38095 ft 473 kts 253°
2026-05-07 15:33 25.27869 -79.61154 38096 ft 473 kts 253°
2026-05-07 15:33 25.25614 -79.67991 38097 ft 473 kts 253°
2026-05-07 15:34 25.23357 -79.74820 38084 ft 473 kts 253°
2026-05-07 15:34 25.21090 -79.81670 38092 ft 473 kts 253°
2026-05-07 15:35 25.18826 -79.88499 38086 ft 474 kts 253°
2026-05-07 15:35 25.16571 -79.95287 38097 ft 474 kts 252°
2026-05-07 15:36 25.14298 -80.02118 38088 ft 474 kts 252°
2026-05-07 15:36 25.12020 -80.08951 38097 ft 474 kts 252°
2026-05-07 15:37 25.09740 -80.15781 38090 ft 474 kts 252°
2026-05-07 15:37 25.07456 -80.22610 38098 ft 474 kts 252°
2026-05-07 15:38 25.05166 -80.29443 38090 ft 475 kts 252°
2026-05-07 15:38 25.02887 -80.36233 38093 ft 475 kts 252°
2026-05-07 15:39 25.00589 -80.43067 38091 ft 475 kts 252°
2026-05-07 15:39 24.98289 -80.49896 38078 ft 475 kts 252°
2026-05-07 15:40 24.95978 -80.56745 38083 ft 475 kts 252°
2026-05-07 15:40 24.93673 -80.63566 38093 ft 475 kts 252°
2026-05-07 15:41 24.91377 -80.70347 38085 ft 475 kts 252°
2026-05-07 15:41 24.89058 -80.77187 38099 ft 475 kts 252°
2026-05-07 15:42 24.86738 -80.84015 38096 ft 475 kts 252°
2026-05-07 15:42 24.84416 -80.90838 38096 ft 475 kts 252°
2026-05-07 15:43 24.82105 -80.97618 38101 ft 475 kts 252°
2026-05-07 15:43 24.79778 -81.04434 38102 ft 476 kts 252°
2026-05-07 15:44 24.77445 -81.11255 38091 ft 476 kts 252°
2026-05-07 15:44 24.75107 -81.18078 38098 ft 476 kts 252°
2026-05-07 15:45 24.72786 -81.24842 38099 ft 476 kts 252°
2026-05-07 15:45 24.70446 -81.31649 38091 ft 476 kts 252°
2026-05-07 15:46 24.66922 -81.41877 38094 ft 476 kts 252°
2026-05-07 15:47 24.64571 -81.48688 38097 ft 476 kts 252°
2026-05-07 15:47 24.62225 -81.55470 38101 ft 476 kts 252°
2026-05-07 15:48 24.59867 -81.62280 38107 ft 476 kts 252°
2026-05-07 15:48 24.57507 -81.69079 38100 ft 476 kts 251°
2026-05-07 15:49 24.55141 -81.75887 38102 ft 476 kts 251°
2026-05-07 15:49 24.52787 -81.82651 38102 ft 476 kts 251°
2026-05-07 15:50 24.50422 -81.89440 38098 ft 475 kts 251°
2026-05-07 15:50 24.48032 -81.96226 38095 ft 476 kts 250°
2026-05-07 15:51 24.45225 -82.02820 38096 ft 476 kts 247°
2026-05-07 15:51 24.42337 -82.09325 38083 ft 477 kts 246°
2026-05-07 15:52 24.39439 -82.15881 38079 ft 476 kts 247°
2026-05-07 15:52 24.37040 -82.21339 38084 ft 476 kts 247°
2026-05-07 15:53 24.33695 -82.28959 38077 ft 476 kts 247°
2026-05-07 15:53 24.31302 -82.34402 38070 ft 476 kts 247°
2026-05-07 15:54 24.28422 -82.40944 38072 ft 476 kts 246°
2026-05-07 15:54 24.25534 -82.47494 38074 ft 476 kts 246°
2026-05-07 15:55 24.22645 -82.54034 38074 ft 476 kts 246°
2026-05-07 15:55 24.19758 -82.60562 38076 ft 476 kts 246°
2026-05-07 15:56 24.16885 -82.67050 38077 ft 476 kts 246°
2026-05-07 15:56 24.13993 -82.73570 38075 ft 475 kts 246°
2026-05-07 15:57 24.11109 -82.80064 38076 ft 475 kts 246°
2026-05-07 15:57 24.08214 -82.86573 38077 ft 475 kts 246°
2026-05-07 15:58 24.05318 -82.93079 38074 ft 475 kts 246°
2026-05-07 15:58 24.02419 -82.99581 38071 ft 474 kts 246°
2026-05-07 15:59 23.99856 -83.06174 38073 ft 471 kts 254°
2026-05-07 15:59 23.98270 -83.13121 38081 ft 469 kts 259°
2026-05-07 16:00 23.96897 -83.20096 38070 ft 469 kts 259°
2026-05-07 16:00 23.95513 -83.27018 38073 ft 469 kts 259°
2026-05-07 16:01 23.94096 -83.33984 38073 ft 468 kts 259°
2026-05-07 16:01 23.92668 -83.40942 38072 ft 468 kts 259°
2026-05-07 16:02 23.91247 -83.47854 38072 ft 468 kts 259°
2026-05-07 16:02 23.89817 -83.54800 38072 ft 467 kts 259°
2026-05-07 16:03 23.88392 -83.61703 38069 ft 467 kts 259°
2026-05-07 16:03 23.86958 -83.68635 38067 ft 467 kts 258°
2026-05-07 16:04 23.85524 -83.75553 38070 ft 467 kts 258°
2026-05-07 16:04 23.84094 -83.82428 38068 ft 466 kts 258°
2026-05-07 16:05 23.82654 -83.89340 38073 ft 466 kts 258°
2026-05-07 16:05 23.81208 -83.96265 38071 ft 466 kts 258°
2026-05-07 16:06 23.79772 -84.03125 38064 ft 466 kts 258°
2026-05-07 16:06 23.78324 -84.10028 38069 ft 466 kts 258°
2026-05-07 16:07 23.76876 -84.16921 38069 ft 465 kts 258°
2026-05-07 16:07 23.75423 -84.23815 38068 ft 465 kts 258°
2026-05-07 16:08 23.73975 -84.30655 38064 ft 465 kts 258°
2026-05-07 16:08 23.72513 -84.37545 38064 ft 465 kts 258°
2026-05-07 16:09 23.71048 -84.44439 38063 ft 465 kts 258°
2026-05-07 16:09 23.69587 -84.51299 38062 ft 465 kts 258°
2026-05-07 16:10 23.68117 -84.58186 38062 ft 465 kts 258°
2026-05-07 16:10 23.66644 -84.65069 38061 ft 465 kts 258°
2026-05-07 16:11 23.65177 -84.71915 38062 ft 465 kts 258°
2026-05-07 16:11 23.63697 -84.78798 38062 ft 465 kts 258°
2026-05-07 16:12 23.62225 -84.85634 38059 ft 465 kts 258°
2026-05-07 16:12 23.60741 -84.92511 38063 ft 465 kts 258°
2026-05-07 16:13 23.59252 -84.99394 38059 ft 465 kts 258°
2026-05-07 16:13 23.57765 -85.06253 38062 ft 465 kts 258°
2026-05-07 16:14 23.56283 -85.13072 38055 ft 465 kts 258°
2026-05-07 16:14 23.54785 -85.19937 38062 ft 465 kts 258°
2026-05-07 16:15 23.53289 -85.26785 38055 ft 464 kts 258°
2026-05-07 16:15 23.51797 -85.33600 38060 ft 464 kts 258°
2026-05-07 16:16 23.50296 -85.40446 38052 ft 464 kts 257°
2026-05-07 16:16 23.48793 -85.47286 38055 ft 464 kts 257°
2026-05-07 16:17 23.47286 -85.54124 38056 ft 464 kts 257°
2026-05-07 16:17 23.45777 -85.60963 38056 ft 464 kts 257°
2026-05-07 16:18 23.44277 -85.67751 38049 ft 464 kts 257°
2026-05-07 16:18 23.42763 -85.74591 38048 ft 464 kts 257°
2026-05-07 16:19 23.41246 -85.81431 38050 ft 464 kts 257°
2026-05-07 16:19 23.39734 -85.88233 38053 ft 464 kts 257°
2026-05-07 16:20 23.38210 -85.95076 38047 ft 464 kts 257°
2026-05-07 16:20 23.36682 -86.01916 38050 ft 464 kts 257°
2026-05-07 16:21 23.35160 -86.08716 38044 ft 464 kts 257°
2026-05-07 16:21 23.33628 -86.15555 38050 ft 465 kts 257°
2026-05-07 16:22 23.32093 -86.22389 38040 ft 465 kts 257°
2026-05-07 16:22 23.30558 -86.29215 38045 ft 464 kts 257°
2026-05-07 16:23 23.29015 -86.36050 38055 ft 464 kts 257°
2026-05-07 16:23 23.27469 -86.42848 38036 ft 464 kts 257°
2026-05-07 16:24 23.25913 -86.49676 38039 ft 464 kts 257°
2026-05-07 16:24 23.24369 -86.56446 38046 ft 464 kts 257°
2026-05-07 16:25 23.22810 -86.63270 38046 ft 464 kts 257°
2026-05-07 16:25 23.21247 -86.70098 38043 ft 464 kts 257°
2026-05-07 16:26 23.19686 -86.76912 38028 ft 464 kts 257°
2026-05-07 16:26 23.18122 -86.83727 38029 ft 464 kts 257°
2026-05-07 16:27 23.16563 -86.90508 38024 ft 464 kts 257°
2026-05-07 16:27 23.14991 -86.97331 38038 ft 464 kts 257°
2026-05-07 16:28 23.13429 -87.04096 38036 ft 464 kts 257°
2026-05-07 16:28 23.11853 -87.10909 38041 ft 465 kts 257°
2026-05-07 16:29 23.10273 -87.17726 38029 ft 465 kts 257°
2026-05-07 16:29 23.08698 -87.24504 38036 ft 465 kts 257°
2026-05-07 16:30 23.07110 -87.31325 38026 ft 465 kts 257°
2026-05-07 16:30 23.05518 -87.38149 38036 ft 465 kts 257°
2026-05-07 16:31 23.03935 -87.44921 38034 ft 465 kts 257°
2026-05-07 16:31 23.02339 -87.51734 38034 ft 465 kts 257°
2026-05-07 16:32 23.00739 -87.58552 38034 ft 465 kts 257°
2026-05-07 16:32 22.99138 -87.65358 38030 ft 465 kts 256°
2026-05-07 16:33 22.97545 -87.72118 38023 ft 465 kts 256°
2026-05-07 16:33 22.95937 -87.78927 38024 ft 465 kts 256°
2026-05-07 16:34 22.94325 -87.85739 38025 ft 466 kts 256°
2026-05-07 16:34 22.92707 -87.92562 38030 ft 466 kts 256°
2026-05-07 16:35 22.91099 -87.99329 38029 ft 466 kts 256°
2026-05-07 16:35 22.89475 -88.06150 38025 ft 466 kts 256°
2026-05-07 16:36 22.87849 -88.12965 38024 ft 466 kts 256°
2026-05-07 16:36 22.86232 -88.19733 38019 ft 466 kts 256°
2026-05-07 16:37 22.84600 -88.26549 38019 ft 466 kts 256°
2026-05-07 16:37 22.82964 -88.33362 38019 ft 466 kts 256°
2026-05-07 16:38 22.81334 -88.40140 38022 ft 467 kts 256°
2026-05-07 16:38 22.79694 -88.46949 38016 ft 467 kts 256°
2026-05-07 16:39 22.78050 -88.53766 38017 ft 467 kts 256°
2026-05-07 16:39 22.76400 -88.60580 38018 ft 467 kts 256°
2026-05-07 16:40 22.74746 -88.67384 38019 ft 467 kts 256°
2026-05-07 16:40 22.73096 -88.74165 38019 ft 467 kts 256°
2026-05-07 16:41 22.71713 -88.79837 38017 ft 467 kts 256°
2026-05-07 16:41 22.70049 -88.86653 38010 ft 467 kts 256°
2026-05-07 16:42 22.68393 -88.93423 38012 ft 467 kts 256°
2026-05-07 16:42 22.66725 -89.00230 38013 ft 468 kts 256°
2026-05-07 16:43 22.65052 -89.07041 38015 ft 468 kts 256°
2026-05-07 16:43 22.63377 -89.13849 38010 ft 468 kts 256°
2026-05-07 16:44 22.61698 -89.20660 37987 ft 468 kts 256°
2026-05-07 16:44 22.60013 -89.27483 38009 ft 471 kts 256°
2026-05-07 16:45 22.58325 -89.34303 38010 ft 473 kts 256°
2026-05-07 16:45 22.56613 -89.41208 38011 ft 475 kts 256°
2026-05-07 16:46 22.54894 -89.48125 38003 ft 477 kts 256°
2026-05-07 16:46 22.53161 -89.55087 38006 ft 478 kts 256°
2026-05-07 16:47 22.51428 -89.62037 38007 ft 479 kts 255°
2026-05-07 16:47 22.49701 -89.68950 38002 ft 478 kts 255°
2026-05-07 16:48 22.47963 -89.75892 37999 ft 478 kts 255°
2026-05-07 16:48 22.46223 -89.82833 37995 ft 477 kts 255°
2026-05-07 16:49 22.44488 -89.89752 37993 ft 476 kts 255°
2026-05-07 16:49 22.42753 -89.96659 37996 ft 476 kts 255°
2026-05-07 16:50 22.41027 -90.03513 37994 ft 475 kts 255°
2026-05-07 16:50 22.39290 -90.10397 37994 ft 475 kts 255°
2026-05-07 16:51 22.37549 -90.17289 37988 ft 474 kts 255°
2026-05-07 16:51 22.35808 -90.24166 37993 ft 474 kts 255°
2026-05-07 16:52 22.34076 -90.30993 37985 ft 473 kts 255°
2026-05-07 16:52 22.32325 -90.37864 37980 ft 473 kts 255°
2026-05-07 16:53 22.30588 -90.44668 37982 ft 472 kts 255°
2026-05-07 16:53 22.28836 -90.51522 37982 ft 472 kts 255°
2026-05-07 16:54 22.27080 -90.58369 37978 ft 472 kts 255°
2026-05-07 16:54 22.25335 -90.65166 37978 ft 473 kts 255°
2026-05-07 16:55 22.23575 -90.72012 37976 ft 473 kts 255°
2026-05-07 16:55 22.21809 -90.78872 37975 ft 474 kts 255°
2026-05-07 16:56 22.20041 -90.85723 37982 ft 474 kts 254°
2026-05-07 16:56 22.17383 -90.96001 37980 ft 474 kts 254°
2026-05-07 16:57 22.15605 -91.02859 37975 ft 474 kts 254°
2026-05-07 16:57 22.13836 -91.09669 37974 ft 474 kts 254°
2026-05-07 16:58 22.12052 -91.16525 37977 ft 474 kts 254°
2026-05-07 16:58 22.10265 -91.23381 37973 ft 475 kts 254°
2026-05-07 16:59 22.08470 -91.30255 37970 ft 475 kts 254°
2026-05-07 16:59 22.06687 -91.37073 37967 ft 475 kts 254°
2026-05-07 17:00 22.04892 -91.43923 37966 ft 475 kts 253°
2026-05-07 17:00 22.03089 -91.50778 37966 ft 475 kts 253°
2026-05-07 17:01 22.01283 -91.57631 37970 ft 476 kts 253°
2026-05-07 17:01 21.99481 -91.64458 37968 ft 476 kts 253°
2026-05-07 17:02 21.97668 -91.71317 37966 ft 476 kts 253°
2026-05-07 17:02 21.95849 -91.78189 37960 ft 476 kts 253°
2026-05-07 17:03 21.94024 -91.85067 37960 ft 477 kts 253°
2026-05-07 17:03 21.92207 -91.91904 37963 ft 477 kts 253°
2026-05-07 17:04 21.90372 -91.98794 37956 ft 477 kts 253°
2026-05-07 17:04 21.88552 -92.05618 37962 ft 477 kts 253°
2026-05-07 17:05 21.86718 -92.12484 37959 ft 477 kts 253°
2026-05-07 17:05 21.84877 -92.19360 37954 ft 477 kts 253°
2026-05-07 17:06 21.83036 -92.26227 37945 ft 476 kts 253°
2026-05-07 17:06 21.81208 -92.33032 37952 ft 476 kts 252°
2026-05-07 17:07 21.79364 -92.39884 37950 ft 475 kts 252°
2026-05-07 17:07 21.77530 -92.46685 37948 ft 475 kts 252°
2026-05-07 17:08 21.75684 -92.53522 37943 ft 474 kts 252°
2026-05-07 17:08 21.73839 -92.60342 37945 ft 474 kts 252°
2026-05-07 17:09 21.71993 -92.67155 37944 ft 473 kts 252°
2026-05-07 17:09 21.70161 -92.73904 37947 ft 473 kts 252°
2026-05-07 17:10 21.68310 -92.80706 37940 ft 473 kts 252°
2026-05-07 17:10 21.66461 -92.87488 37938 ft 473 kts 252°
2026-05-07 17:11 21.64610 -92.94272 37939 ft 472 kts 252°
2026-05-07 17:11 21.62769 -93.01004 37940 ft 472 kts 252°
2026-05-07 17:12 21.60910 -93.07794 37939 ft 472 kts 252°
2026-05-07 17:12 21.59048 -93.14584 37934 ft 475 kts 252°
2026-05-07 17:13 21.57187 -93.21355 37936 ft 476 kts 252°
2026-05-07 17:13 21.55306 -93.28189 37933 ft 477 kts 252°
2026-05-07 17:14 21.53417 -93.35040 37932 ft 479 kts 252°
2026-05-07 17:14 21.51529 -93.41873 37933 ft 480 kts 252°
2026-05-07 17:15 21.49622 -93.48766 37926 ft 481 kts 252°
2026-05-07 17:15 21.47711 -93.55660 37925 ft 482 kts 252°
2026-05-07 17:16 21.45795 -93.62564 37921 ft 482 kts 252°
2026-05-07 17:16 21.43876 -93.69463 37913 ft 481 kts 252°
2026-05-07 17:17 21.41970 -93.76301 37922 ft 481 kts 252°
2026-05-07 17:17 21.40049 -93.83184 37908 ft 479 kts 254°
2026-05-07 17:18 21.38158 -93.89947 37901 ft 467 kts 254°
2026-05-07 17:18 21.36292 -93.96610 37906 ft 465 kts 254°
2026-05-07 17:19 21.34427 -94.03261 37911 ft 465 kts 253°
2026-05-07 17:19 21.32569 -94.09876 37912 ft 466 kts 253°
2026-05-07 17:20 21.30689 -94.16554 37910 ft 467 kts 253°
2026-05-07 17:20 21.28806 -94.23235 37904 ft 469 kts 253°
2026-05-07 17:21 21.26922 -94.29905 37904 ft 470 kts 253°
2026-05-07 17:21 21.25023 -94.36620 37904 ft 471 kts 253°
2026-05-07 17:22 21.23119 -94.43340 37901 ft 471 kts 253°
2026-05-07 17:22 21.21207 -94.50078 37897 ft 471 kts 253°
2026-05-07 17:23 21.19308 -94.56760 37898 ft 471 kts 253°
2026-05-07 17:23 21.17397 -94.63472 37898 ft 470 kts 253°
2026-05-07 17:24 21.15484 -94.70178 37895 ft 470 kts 253°
2026-05-07 17:24 21.13582 -94.76838 37893 ft 469 kts 253°
2026-05-07 17:25 21.11675 -94.83505 37892 ft 468 kts 253°
2026-05-07 17:25 21.09766 -94.90168 37894 ft 467 kts 253°
2026-05-07 17:26 21.07861 -94.96809 37889 ft 466 kts 253°
2026-05-07 17:26 21.06234 -95.03522 37891 ft 465 kts 259°
2026-05-07 17:27 21.05026 -95.10324 37894 ft 465 kts 259°
2026-05-07 17:27 21.03804 -95.17084 37889 ft 465 kts 259°
2026-05-07 17:28 21.02499 -95.23866 37889 ft 465 kts 255°
2026-05-07 17:28 21.00722 -95.29312 37896 ft 465 kts 248°
2026-05-07 17:29 20.97188 -95.36430 37890 ft 466 kts 240°
2026-05-07 17:29 20.93826 -95.42325 37802 ft 465 kts 240°
2026-05-07 17:30 20.91020 -95.47339 37787 ft 470 kts 240°
2026-05-07 17:30 20.87672 -95.53346 37784 ft 475 kts 240°
2026-05-07 17:31 20.84254 -95.59454 37790 ft 479 kts 240°
2026-05-07 17:31 20.80818 -95.65586 37786 ft 482 kts 240°
2026-05-07 17:32 20.77370 -95.71736 37785 ft 485 kts 240°
2026-05-07 17:32 20.73888 -95.77941 37782 ft 487 kts 240°
2026-05-07 17:33 20.70412 -95.84128 37782 ft 488 kts 240°
2026-05-07 17:33 20.66915 -95.90347 37776 ft 488 kts 240°
2026-05-07 17:34 20.63419 -95.96557 37773 ft 486 kts 240°
2026-05-07 17:34 20.59957 -96.02700 37774 ft 484 kts 240°
2026-05-07 17:35 20.56488 -96.08850 37771 ft 483 kts 240°
2026-05-07 17:35 20.53524 -96.15248 37777 ft 479 kts 250°
2026-05-07 17:36 20.51573 -96.22032 37773 ft 478 kts 258°
2026-05-07 17:36 20.50263 -96.28973 37783 ft 477 kts 259°
2026-05-07 17:37 20.48984 -96.35919 37779 ft 477 kts 259°
2026-05-07 17:37 20.47678 -96.42812 37771 ft 477 kts 258°
2026-05-07 17:38 20.46342 -96.49751 37770 ft 477 kts 258°
2026-05-07 17:38 20.45001 -96.56692 37771 ft 477 kts 258°
2026-05-07 17:39 20.43657 -96.63638 37780 ft 478 kts 258°
2026-05-07 17:39 20.42321 -96.70536 37772 ft 478 kts 258°
2026-05-07 17:40 20.40974 -96.77478 37772 ft 478 kts 258°
2026-05-07 17:40 20.39619 -96.84420 37771 ft 478 kts 257°
2026-05-07 17:41 20.37858 -96.91258 37774 ft 478 kts 253°
2026-05-07 17:41 20.35941 -96.98045 37773 ft 478 kts 253°
2026-05-07 17:42 20.34042 -97.04797 37772 ft 478 kts 253°
2026-05-07 17:42 20.32141 -97.11622 37770 ft 478 kts 253°
2026-05-07 17:43 20.30258 -97.18392 37771 ft 479 kts 253°
2026-05-07 17:43 20.28361 -97.25200 37786 ft 479 kts 253°
2026-05-07 17:44 20.26458 -97.32021 37777 ft 480 kts 253°
2026-05-07 17:44 20.24564 -97.38793 37792 ft 480 kts 253°
2026-05-07 17:45 20.22651 -97.45624 37801 ft 480 kts 253°
2026-05-07 17:45 20.20735 -97.52452 37805 ft 481 kts 253°
2026-05-07 17:46 20.18830 -97.59232 37814 ft 481 kts 253°
2026-05-07 17:46 20.16911 -97.66050 37827 ft 481 kts 253°
2026-05-07 17:47 20.14989 -97.72871 37842 ft 480 kts 253°
2026-05-07 17:47 20.13065 -97.79686 37861 ft 480 kts 253°
2026-05-07 17:48 20.11148 -97.86461 37876 ft 480 kts 253°
2026-05-07 17:48 20.09252 -97.93154 37353 ft 465 kts 252°
2026-05-07 17:49 20.08325 -97.96426 36966 ft 458 kts 252°
2026-05-07 17:49 20.07405 -97.99666 36419 ft 456 kts 252°
2026-05-07 17:49 20.06486 -98.02902 35674 ft 459 kts 252°
2026-05-07 17:49 20.05566 -98.06134 34689 ft 467 kts 252°
2026-05-07 17:50 20.04614 -98.09478 33626 ft 476 kts 252°
2026-05-07 17:50 20.03645 -98.12884 32637 ft 482 kts 252°
2026-05-07 17:50 20.02672 -98.16304 31785 ft 484 kts 252°
2026-05-07 17:50 20.01725 -98.19757 30924 ft 487 kts 254°
2026-05-07 17:51 20.00933 -98.23278 30046 ft 491 kts 256°
2026-05-07 17:51 20.00242 -98.26823 29525 ft 484 kts 257°
2026-05-07 17:51 19.99606 -98.30249 29356 ft 473 kts 257°
2026-05-07 17:51 19.98961 -98.33684 29178 ft 474 kts 257°
2026-05-07 17:52 19.98290 -98.37146 29011 ft 482 kts 256°
2026-05-07 17:52 19.97592 -98.40654 28806 ft 485 kts 256°
2026-05-07 17:52 19.96887 -98.44155 28630 ft 482 kts 256°
2026-05-07 17:52 19.96183 -98.47625 28432 ft 480 kts 256°
2026-05-07 17:53 19.95478 -98.51087 28249 ft 477 kts 256°
2026-05-07 17:53 19.94785 -98.54491 28065 ft 475 kts 256°
2026-05-07 17:53 19.94085 -98.57930 27881 ft 474 kts 256°
2026-05-07 17:53 19.93390 -98.61350 27696 ft 472 kts 256°
2026-05-07 17:54 19.92698 -98.64753 27524 ft 471 kts 256°
2026-05-07 17:54 19.92013 -98.68117 27340 ft 470 kts 256°
2026-05-07 17:54 19.91328 -98.71472 27198 ft 469 kts 256°
2026-05-07 17:54 19.90651 -98.74857 26959 ft 471 kts 257°
2026-05-07 17:55 19.90183 -98.78333 26406 ft 474 kts 262°
2026-05-07 17:55 19.89878 -98.81808 25900 ft 471 kts 262°
2026-05-07 17:55 19.89567 -98.85261 25373 ft 467 kts 262°
2026-05-07 17:55 19.89208 -98.88679 24857 ft 463 kts 261°
2026-05-07 17:56 19.88960 -98.92082 24331 ft 461 kts 267°
2026-05-07 17:56 19.89086 -98.95493 23810 ft 460 kts 272°
2026-05-07 17:56 19.89382 -98.98829 23190 ft 458 kts 273°
2026-05-07 17:56 19.89716 -99.02188 22635 ft 454 kts 273°
2026-05-07 17:57 19.90020 -99.05509 22084 ft 450 kts 272°
2026-05-07 17:57 19.90199 -99.07694 21725 ft 447 kts 272°
2026-05-07 17:57 19.90516 -99.12079 20999 ft 442 kts 271°
2026-05-07 17:57 19.90729 -99.15261 20437 ft 420 kts 271°
2026-05-07 17:58 19.90925 -99.18245 19938 ft 398 kts 271°
2026-05-07 17:58 19.91114 -99.21143 19450 ft 378 kts 271°
2026-05-07 17:58 19.91292 -99.23832 18991 ft 361 kts 270°
2026-05-07 17:58 19.91465 -99.26433 18558 ft 344 kts 270°
2026-05-07 17:59 19.91596 -99.28909 18172 ft 325 kts 264°
2026-05-07 17:59 19.91224 -99.31180 17918 ft 308 kts 251°
2026-05-07 17:59 19.90638 -99.33383 17735 ft 309 kts 251°
2026-05-07 17:59 19.90065 -99.35584 17734 ft 309 kts 251°
2026-05-07 18:00 19.89507 -99.37794 17669 ft 309 kts 252°
2026-05-07 18:00 19.88910 -99.39963 17617 ft 301 kts 242°
2026-05-07 18:00 19.87681 -99.41692 17249 ft 292 kts 213°
2026-05-07 18:00 19.85908 -99.42593 16816 ft 287 kts 190°
2026-05-07 18:01 19.83919 -99.42707 16305 ft 288 kts 173°
2026-05-07 18:01 19.82010 -99.42149 15979 ft 281 kts 153°
2026-05-07 18:01 19.80304 -99.41176 15830 ft 279 kts 151°
2026-05-07 18:01 19.78591 -99.40150 15654 ft 287 kts 150°
2026-05-07 18:02 19.75032 -99.38015 15304 ft 295 kts 151°
2026-05-07 18:02 19.73243 -99.36952 15115 ft 293 kts 151°
2026-05-07 18:02 19.71469 -99.35905 14927 ft 290 kts 151°
2026-05-07 18:03 19.69710 -99.34870 14773 ft 289 kts 151°
2026-05-07 18:03 19.67980 -99.33854 14582 ft 287 kts 151°
2026-05-07 18:03 19.66371 -99.32910 14441 ft 285 kts 151°
2026-05-07 18:03 19.64636 -99.31894 14255 ft 284 kts 151°
2026-05-07 18:04 19.62915 -99.30887 14109 ft 280 kts 151°
2026-05-07 18:04 19.61220 -99.29894 13927 ft 275 kts 151°
2026-05-07 18:04 19.59564 -99.28912 13699 ft 268 kts 147°
2026-05-07 18:04 19.58063 -99.27796 13405 ft 258 kts 143°
2026-05-07 18:05 19.56672 -99.26677 13163 ft 253 kts 142°
2026-05-07 18:05 19.55257 -99.25547 12941 ft 259 kts 143°
2026-05-07 18:05 19.53786 -99.24395 12709 ft 262 kts 146°
2026-05-07 18:05 19.52074 -99.23749 12374 ft 265 kts 179°
2026-05-07 18:06 19.50258 -99.24014 12130 ft 265 kts 191°
2026-05-07 18:06 19.48433 -99.24412 11798 ft 270 kts 191°
2026-05-07 18:06 19.46589 -99.24808 11518 ft 268 kts 191°
2026-05-07 18:06 19.44771 -99.25194 11250 ft 266 kts 191°
2026-05-07 18:07 19.42966 -99.25345 10948 ft 257 kts 168°
2026-05-07 18:07 19.41338 -99.24675 10710 ft 249 kts 148°
2026-05-07 18:07 19.39884 -99.23741 10398 ft 246 kts 147°
2026-05-07 18:07 19.38442 -99.22809 10060 ft 238 kts 146°
2026-05-07 18:08 19.37209 -99.21711 9743 ft 228 kts 119°
2026-05-07 18:08 19.36772 -99.20198 9523 ft 210 kts 83°
2026-05-07 18:08 19.37200 -99.18739 9433 ft 219 kts 63°
2026-05-07 18:08 19.37860 -99.17228 9313 ft 230 kts 62°
2026-05-07 18:09 19.38650 -99.15765 9140 ft 226 kts 58°
2026-05-07 18:09 19.39446 -99.14384 8918 ft 212 kts 58°
2026-05-07 18:09 19.40166 -99.13100 8673 ft 195 kts 58°
2026-05-07 18:09 19.40834 -99.11910 8295 ft 189 kts 58°
2026-05-07 18:10 19.41515 -99.10695 7980 ft 196 kts 56°
2026-05-07 18:10 19.42218 -99.09438 7584 ft 199 kts 56°
2026-05-07 18:10 19.42883 -99.08230 7316 ft 177 kts 55°
2026-05-07 18:10 19.43429 -99.07292 7307 ft 105 kts 60°
2026-05-07 18:11 19.43767 -99.06686 7308 ft 84 kts 58°
2026-05-07 18:11 19.43938 -99.06376 7308 ft 45 kts 59°
2026-05-07 18:11 19.44056 -99.06250 7308 ft 13 kts 32°
2026-05-07 18:11 19.44141 -99.06200 7307 ft 14 kts 25°
2026-05-07 18:12 19.44236 -99.06171 7307 ft 14 kts
2026-05-07 18:12 19.44309 -99.06164 7307 ft 10 kts
2026-05-07 18:12 19.44372 -99.06184 7311 ft 10 kts 313°
2026-05-07 18:12 19.44407 -99.06248 7307 ft 10 kts 294°
2026-05-07 18:13 19.44416 -99.06321 7307 ft 10 kts 260°
2026-05-07 18:13 19.44384 -99.06388 7307 ft 10 kts 239°
2026-05-07 18:13 19.44348 -99.06453 7307 ft 10 kts 239°
2026-05-07 18:13 19.44313 -99.06517 7307 ft 10 kts 239°
2026-05-07 18:14 19.44276 -99.06581 7307 ft 10 kts 239°
2026-05-07 18:14 19.44240 -99.06646 7307 ft 10 kts 239°
2026-05-07 18:14 19.44204 -99.06710 7307 ft 10 kts 239°
2026-05-07 18:14 19.44168 -99.06774 7307 ft 10 kts 239°
2026-05-07 18:15 19.44132 -99.06839 7307 ft 10 kts 239°
2026-05-07 18:15 19.44096 -99.06902 7307 ft 10 kts 239°
2026-05-07 18:15 19.44060 -99.06967 7307 ft 10 kts 239°
2026-05-07 18:15 19.44023 -99.07031 7307 ft 10 kts 239°
2026-05-07 18:16 19.43987 -99.07095 7307 ft 10 kts 239°
2026-05-07 18:16 19.43963 -99.07138 7307 ft 10 kts 239°
2026-05-07 18:16 19.43927 -99.07202 7307 ft 10 kts 239°
2026-05-07 18:16 19.43891 -99.07266 7307 ft 10 kts 239°
2026-05-07 18:17 19.43854 -99.07330 7307 ft 10 kts 239°
2026-05-07 18:17 19.43819 -99.07395 7307 ft 10 kts 240°
2026-05-07 18:17 19.43783 -99.07459 7307 ft 10 kts 240°
2026-05-07 18:17 19.43748 -99.07524 7307 ft 10 kts 240°
2026-05-07 18:18 19.43728 -99.07578 7307 ft 5 kts 282°
2026-05-07 18:18 19.43740 -99.07608 7308 ft 4 kts 290°
2026-05-07 18:18 19.43746 -99.07639 7307 ft 4 kts 279°
2026-05-07 18:18 19.43748 -99.07670 7307 ft 4 kts 269°
2026-05-07 18:19 19.43748 -99.07690 7307 ft 1 kts 269°
2026-05-07 18:19 19.43747 -99.07695 7307 ft 0 kts 269°